<- Previous Day | Today | Next Day ->

All Data for 06 July 2022

 

Time A - D Temp A - D Dew Point A - D Humidity A - D Pressure A - D Wind A - D Wind Dir Gust A - D Rain Rate A - D Rain Total
00:00 15.4 14.8 96 1031.1 3.8 NW 4.5 0.0 0.0
00:01 15.4 14.8 96 1031.1 3.8 NW 4.5 0.0 0.0
00:02 15.4 14.8 96 1031.1 3.1 NW 4.5 0.0 0.0
00:03 15.4 14.9 97 1031.2 3.1 NW 4.5 0.0 0.0
00:04 15.4 14.9 97 1031.2 4.5 NW 4.5 0.0 0.0
00:05 15.4 14.9 97 1031.4 5.4 NW 5.4 0.0 0.0
00:06 15.4 14.9 97 1031.1 4.5 W 5.4 0.0 0.0
00:07 15.4 14.9 97 1031.2 3.1 NW 5.4 0.0 0.0
00:08 15.4 14.9 97 1031.3 3.1 NW 5.4 0.0 0.0
00:09 15.4 14.9 97 1031.1 3.8 NW 5.4 0.0 0.0
00:10 15.4 14.9 97 1031.3 1.6 NW 5.4 0.0 0.0
00:11 15.4 14.9 97 1031.3 3.8 NW 5.4 0.0 0.0
00:12 15.4 14.9 97 1031.1 3.1 N 5.4 0.0 0.0
00:13 15.4 14.9 97 1031.3 3.1 NW 5.4 0.0 0.0
00:14 15.4 14.9 97 1031.1 3.1 NW 5.4 0.0 0.0
00:15 15.4 14.9 97 1031.3 3.8 W 5.4 0.0 0.0
00:16 15.4 14.9 97 1031.2 3.8 NW 5.4 0.0 0.0
00:17 15.4 14.9 97 1031.3 3.8 NW 5.4 0.0 0.0
00:18 15.4 14.9 97 1031.1 2.2 N 5.4 0.0 0.0
00:19 15.4 14.9 97 1031.2 3.1 NE 5.4 0.0 0.0
00:20 15.4 14.9 97 1031.1 3.1 NE 5.4 0.0 0.0
00:21 15.4 14.9 97 1031.1 3.8 NW 5.4 0.0 0.0
00:23 15.3 14.8 97 1031.2 4.5 WNW 6.0 0.0 0.0
00:24 15.3 14.8 97 1031.2 4.5 N 6.0 0.0 0.0
00:25 15.3 14.8 97 1031.3 4.5 N 6.0 0.0 0.0
00:26 15.3 14.8 97 1031.2 3.8 NW 6.0 0.0 0.0
00:27 15.3 14.8 97 1031.3 2.2 W 6.0 0.0 0.0
00:28 15.3 14.8 97 1031.3 2.2 W 6.0 0.0 0.0
00:29 15.3 14.8 97 1031.3 2.2 W 6.0 0.0 0.0
00:30 15.3 14.8 97 1031.3 3.8 NW 6.0 0.0 0.0
00:31 15.3 14.8 97 1031.0 4.5 N 6.0 0.0 0.0
00:32 15.3 14.8 97 1031.3 3.8 W 6.0 0.0 0.0
00:33 15.3 14.8 97 1031.1 3.1 W 6.0 0.0 0.0
00:34 15.3 14.8 97 1031.3 1.6 NW 4.5 0.0 0.0
00:35 15.3 14.8 97 1031.3 1.6 NW 4.5 0.0 0.0
00:37 15.3 14.8 97 1031.3 5.4 NW 5.4 0.0 0.0
00:38 15.3 14.8 97 1031.3 4.5 NW 5.4 0.0 0.0
00:39 15.3 14.8 97 1031.1 1.6 NW 5.4 0.0 0.0
00:40 15.4 15.1 98 1031.2 1.6 W 5.4 0.0 0.0
00:41 15.4 15.1 98 1031.3 2.2 W 5.4 0.0 0.0
00:42 15.4 15.1 98 1031.3 2.2 NW 5.4 0.0 0.0
00:43 15.4 15.1 98 1031.2 2.2 NW 5.4 0.0 0.0
00:44 15.4 15.1 98 1031.1 2.2 NW 5.4 0.0 0.0
00:45 15.4 15.1 98 1031.1 2.2 W 5.4 0.0 0.0
00:46 15.4 15.1 98 1031.2 3.8 S 5.4 0.0 0.0
00:47 15.4 15.1 98 1031.3 3.1 NW 5.4 0.0 0.0
00:48 15.4 15.1 98 1031.2 3.8 NW 4.5 0.0 0.0
00:49 15.4 15.1 98 1031.3 3.8 NW 3.8 0.0 0.0
00:50 15.4 15.1 98 1031.2 3.8 W 3.8 0.0 0.0
00:52 15.4 15.1 98 1031.2 3.1 NW 3.8 0.0 0.0
00:53 15.4 15.1 98 1031.2 4.5 NW 4.5 0.0 0.0
00:54 15.4 15.1 98 1031.2 3.1 N 4.5 0.0 0.0
00:55 15.4 15.1 98 1031.1 3.1 N 4.5 0.0 0.0
00:56 15.4 15.1 98 1031.1 3.8 NE 4.5 0.0 0.0
00:57 15.4 15.1 98 1031.1 3.8 NE 4.5 0.0 0.0
00:58 15.4 15.1 98 1031.0 4.5 NW 4.5 0.0 0.0
00:59 15.4 15.1 98 1031.1 5.4 NW 5.4 0.0 0.0
01:00 15.4 15.1 98 1031.2 3.1 N 5.4 0.0 0.0
01:01 15.4 15.1 98 1031.2 3.1 N 5.4 0.0 0.0
01:02 15.4 15.1 98 1031.0 3.1 N 5.4 0.0 0.0
01:03 15.4 15.1 98 1031.1 3.1 N 5.4 0.0 0.0
01:05 15.4 15.1 98 1031.2 3.1 N 5.4 0.0 0.0
01:06 15.4 15.1 98 1031.0 3.1 N 5.4 0.0 0.0
01:07 15.3 15.0 98 1031.1 3.8 N 5.4 0.0 0.0
01:08 15.3 15.0 98 1030.9 3.1 N 5.4 0.0 0.0
01:09 15.3 15.0 98 1031.0 4.5 NE 4.5 0.0 0.0
01:10 15.3 15.0 98 1031.2 5.4 NE 5.4 0.0 0.0
01:11 15.2 14.9 98 1031.2 3.8 W 5.4 0.0 0.0
01:12 15.2 14.9 98 1031.1 3.8 W 5.4 0.0 0.0
01:13 15.2 14.9 98 1031.2 2.2 NE 5.4 0.0 0.0
01:14 15.2 14.9 98 1031.2 3.8 NW 5.4 0.0 0.0
01:15 15.2 14.9 98 1031.2 3.8 NE 5.4 0.0 0.0
01:16 15.2 14.9 98 1031.4 7.6 SE 7.6 0.0 0.0
01:17 15.2 14.9 98 1031.3 3.1 N 7.6 0.0 0.0
01:19 15.2 14.9 98 1031.3 2.2 NE 7.6 0.0 0.0
01:20 15.2 14.9 98 1031.3 2.2 N 7.6 0.0 0.0
01:21 15.2 14.9 98 1031.4 3.1 N 7.6 0.0 0.0
01:22 15.2 14.9 98 1031.1 2.2 NW 7.6 0.0 0.0
01:23 15.2 15.1 99 1031.1 1.6 SW 7.6 0.0 0.0
01:24 15.3 15.2 99 1031.2 2.2 W 7.6 0.0 0.0
01:25 15.3 15.2 99 1031.2 2.2 W 7.6 0.0 0.0
01:26 15.3 15.2 99 1031.2 0.7 NW 7.6 0.0 0.0
01:27 15.3 15.2 99 1031.1 1.6 N 3.8 0.0 0.0
01:28 15.3 15.2 99 1031.2 1.6 N 3.1 0.0 0.0
01:29 15.3 15.2 99 1031.1 1.6 N 3.1 0.0 0.0
01:30 15.3 15.2 99 1031.1 3.1 NW 3.8 0.0 0.0
01:31 15.3 15.2 99 1031.3 1.6 NW 3.8 0.0 0.0
01:33 15.3 15.2 99 1031.2 4.5 NW 4.5 0.0 0.0
01:34 15.3 15.2 99 1031.3 3.8 SW 4.5 0.0 0.0
01:35 15.3 15.2 99 1031.2 3.1 N 4.5 0.0 0.0
01:36 15.3 15.2 99 1031.1 3.8 NW 4.5 0.0 0.0
01:37 15.3 15.2 99 1031.2 3.8 NW 4.5 0.0 0.0
01:38 15.3 15.2 99 1031.5 3.1 N 4.5 0.0 0.0
01:39 15.3 15.2 99 1031.2 3.1 NW 4.5 0.0 0.0
01:40 15.3 15.2 99 1031.5 4.5 NW 4.5 0.0 0.0
01:41 15.3 15.2 99 1031.3 4.5 NW 4.5 0.0 0.0
01:42 15.3 15.2 99 1031.4 4.5 N 4.5 0.0 0.0
01:43 15.3 15.2 99 1031.3 3.8 NW 4.5 0.0 0.0
01:44 15.3 15.2 99 1031.4 1.6 N 4.5 0.0 0.0
01:45 15.3 15.2 99 1031.1 2.2 NE 4.5 0.0 0.0
01:47 15.3 15.2 99 1031.4 3.1 NW 4.5 0.0 0.0
01:48 15.3 15.2 99 1031.4 3.1 N 4.5 0.0 0.0
01:49 15.3 15.2 99 1031.2 2.2 NNE 4.5 0.0 0.0
01:50 15.3 15.2 99 1031.1 2.2 NW 4.5 0.0 0.0
01:51 15.3 15.2 99 1031.3 3.1 SE 4.5 0.0 0.0
01:52 15.3 15.2 99 1031.0 1.6 E 4.5 0.0 0.0
01:53 15.3 15.2 99 1031.0 1.6 E 3.8 0.0 0.0
01:54 15.3 15.2 99 1031.3 3.8 NW 3.8 0.0 0.0
01:55 15.3 15.2 99 1031.1 3.8 NW 3.8 0.0 0.0
01:56 15.3 15.2 99 1031.1 3.8 NW 3.8 0.0 0.0
01:57 15.3 15.2 99 1031.5 3.8 NW 3.8 0.0 0.0
01:58 15.3 15.2 99 1031.4 2.2 NE 3.8 0.0 0.0
01:59 15.3 15.2 99 1031.3 2.2 NW 3.8 0.0 0.0
02:01 15.2 15.1 99 1031.2 0.7 NNE 3.8 0.0 0.0
02:02 15.2 15.1 99 1031.1 3.8 W 3.8 0.0 0.0
02:03 15.2 15.1 99 1031.0 3.1 NE 3.8 0.0 0.0
02:04 15.2 15.1 99 1030.8 4.5 N 4.5 0.0 0.0
02:05 15.2 15.1 99 1031.1 4.5 NW 4.5 0.0 0.0
02:06 15.2 15.1 99 1031.2 1.6 N 4.5 0.0 0.0
02:07 15.2 15.1 99 1031.2 1.6 N 4.5 0.0 0.0
02:08 15.2 15.1 99 1031.1 1.6 NW 4.5 0.0 0.0
02:09 15.2 15.1 99 1030.9 2.2 NW 4.5 0.0 0.0
02:10 15.2 15.1 99 1031.2 1.6 N 4.5 0.0 0.0
02:11 15.2 15.1 99 1031.0 1.6 N 4.5 0.0 0.0
02:12 15.2 15.1 99 1031.0 0.7 N 4.5 0.0 0.0
02:13 15.2 15.1 99 1030.8 0.7 N 4.5 0.0 0.0
02:14 15.2 15.1 99 1031.4 3.8 N 4.5 0.0 0.0
02:15 15.2 15.1 99 1031.1 3.1 W 4.5 0.0 0.0
02:16 15.2 15.1 99 1030.9 3.1 NW 3.8 0.0 0.0
02:17 15.2 15.1 99 1031.0 3.1 NW 3.8 0.0 0.0
02:18 15.2 15.1 99 1031.0 3.8 N 3.8 0.0 0.0
02:19 15.2 15.1 99 1030.9 3.1 W 3.8 0.0 0.0
02:20 15.2 15.1 99 1031.2 3.1 NW 3.8 0.0 0.0
02:21 15.2 15.1 99 1031.2 3.1 NW 3.8 0.0 0.0
02:22 15.2 15.1 99 1030.9 2.2 N 3.8 0.0 0.0
02:23 15.2 15.1 99 1031.1 2.2 N 3.8 0.0 0.0
02:24 15.2 15.1 99 1030.9 2.2 N 3.8 0.0 0.0
02:25 15.2 15.1 99 1030.8 2.2 NNW 3.8 0.0 0.0
02:26 15.2 15.1 99 1031.0 1.6 NE 3.8 0.0 0.0
02:27 15.2 15.1 99 1031.1 1.6 NE 3.8 0.0 0.0
02:28 15.2 15.1 99 1030.9 2.2 NW 3.8 0.0 0.0
02:29 15.2 15.1 99 1030.8 1.6 W 3.1 0.0 0.0
02:30 15.2 15.1 99 1031.0 2.2 NE 3.1 0.0 0.0
02:31 15.2 15.1 99 1030.9 0.7 W 3.1 0.0 0.0
02:32 15.2 15.1 99 1030.9 1.6 NE 3.1 0.0 0.0
02:33 15.2 15.1 99 1030.9 2.2 N 3.1 0.0 0.0
02:34 15.2 15.1 99 1030.9 2.2 N 3.1 0.0 0.0
02:35 15.2 15.1 99 1030.7 2.2 NW 3.1 0.0 0.0
02:36 15.2 15.1 99 1031.0 1.6 N 3.1 0.0 0.0
02:37 15.2 15.1 99 1030.8 2.2 NW 3.1 0.0 0.0
02:38 15.2 15.1 99 1031.1 2.2 N 3.1 0.0 0.0
02:39 15.2 15.1 99 1030.9 3.1 NW 3.1 0.0 0.0
02:40 15.2 15.1 99 1030.7 2.2 N 3.1 0.0 0.0
02:41 15.2 15.1 99 1031.1 2.2 NW 3.1 0.0 0.0
02:42 15.1 15.0 99 1031.0 4.5 NE 4.5 0.0 0.0
02:44 15.1 15.0 99 1031.1 3.1 NW 4.5 0.0 0.0
02:45 15.1 15.0 99 1031.0 2.2 W 4.5 0.0 0.0
02:46 15.1 15.0 99 1030.9 4.5 NW 4.5 0.0 0.0
02:47 15.1 15.0 99 1031.0 3.1 NW 4.5 0.0 0.0
02:48 15.1 15.0 99 1030.9 3.8 NW 4.5 0.0 0.0
02:49 15.1 15.0 99 1030.9 3.8 NW 4.5 0.0 0.0
02:50 15.2 15.1 99 1030.8 3.1 N 4.5 0.0 0.0
02:51 15.2 15.1 99 1030.8 3.8 NW 4.5 0.0 0.0
02:52 15.2 15.1 99 1030.9 3.8 N 4.5 0.0 0.0
02:53 15.2 15.1 99 1030.9 5.4 N 5.4 0.0 0.0
02:54 15.2 15.1 99 1030.6 4.5 NW 5.4 0.0 0.0
02:55 15.2 15.1 99 1030.5 3.1 NW 5.4 0.0 0.0
02:56 15.2 15.1 99 1030.7 3.1 NW 5.4 0.0 0.0
02:58 15.2 15.1 99 1031.0 3.1 NW 5.4 0.0 0.0
02:59 15.2 15.1 99 1030.8 3.8 NW 5.4 0.0 0.0
03:00 15.2 15.1 99 1030.9 3.8 NW 5.4 0.0 0.0
03:01 15.2 15.1 99 1030.8 3.8 NW 5.4 0.0 0.0
03:02 15.2 15.1 99 1030.7 3.8 NW 5.4 0.0 0.0
03:03 15.2 15.1 99 1030.7 3.8 NW 4.5 0.0 0.0
03:04 15.2 15.1 99 1030.6 3.8 NW 4.5 0.0 0.0
03:05 15.2 15.1 99 1030.8 3.8 NW 3.8 0.0 0.0
03:06 15.2 15.1 99 1030.7 3.8 NW 3.8 0.0 0.0
03:07 15.2 15.1 99 1030.7 3.1 WNW 3.8 0.0 0.0
03:08 15.2 15.2 100 1030.6 3.1 NW 3.8 0.0 0.0
03:09 15.2 15.2 100 1030.9 3.1 NW 3.8 0.0 0.0
03:10 15.2 15.2 100 1030.8 3.1 NW 3.8 0.0 0.0
03:12 15.2 15.2 100 1030.8 4.5 NW 5.4 0.0 0.0
03:13 15.2 15.2 100 1030.9 4.5 NW 5.4 0.0 0.0
03:14 15.2 15.2 100 1030.9 6.0 W 6.0 0.0 0.0
03:15 15.2 15.2 100 1030.8 6.0 W 6.0 0.0 0.0
03:16 15.2 15.2 100 1030.7 3.8 N 6.0 0.0 0.0
03:17 15.2 15.2 100 1030.7 3.8 N 6.0 0.0 0.0
03:18 15.2 15.2 100 1030.6 5.4 NW 6.0 0.0 0.0
03:19 15.2 15.2 100 1030.7 5.4 NW 6.0 0.0 0.0
03:20 15.2 15.2 100 1030.9 3.8 NW 6.0 0.0 0.0
03:21 15.2 15.2 100 1030.8 3.8 NW 6.0 0.0 0.0
03:22 15.2 15.2 100 1030.7 4.5 WNW 6.0 0.0 0.0
03:23 15.2 15.2 100 1030.7 4.5 NW 6.0 0.0 0.0
03:24 15.2 15.2 100 1030.8 3.1 NE 6.0 0.0 0.0
03:26 15.2 15.2 100 1030.8 3.8 NE 5.4 0.0 0.0
03:27 15.2 15.2 100 1030.7 3.8 NE 5.4 0.0 0.0
03:28 15.2 15.2 100 1030.7 3.8 NE 5.4 0.0 0.0
03:29 15.2 15.2 100 1030.6 3.8 WNW 5.4 0.0 0.0
03:30 15.2 15.2 100 1030.7 3.1 W 5.4 0.0 0.0
03:31 15.3 15.3 100 1030.9 5.4 NW 5.4 0.0 0.0
03:32 15.3 15.3 100 1030.7 5.4 WNW 5.4 0.0 0.0
03:33 15.3 15.3 100 1030.9 5.4 NW 5.4 0.0 0.0
03:34 15.3 15.3 100 1030.7 5.4 NW 5.4 0.0 0.0
03:35 15.3 15.3 100 1030.8 5.4 NW 5.4 0.0 0.0
03:36 15.3 15.3 100 1030.8 5.4 NW 5.4 0.0 0.0
03:37 15.3 15.3 100 1031.0 5.4 NW 5.4 0.0 0.0
03:38 15.3 15.3 100 1030.8 3.1 ESE 5.4 0.0 0.0
03:40 15.3 15.3 100 1030.9 3.1 SE 5.4 0.0 0.0
03:41 15.3 15.3 100 1030.8 3.1 SE 5.4 0.0 0.0
03:42 15.3 15.3 100 1030.9 3.1 SE 5.4 0.0 0.0
03:43 15.3 15.3 100 1030.8 6.9 NW 6.9 0.0 0.0
03:44 15.3 15.3 100 1030.9 6.9 NW 6.9 0.0 0.0
03:45 15.3 15.3 100 1030.8 4.5 E 6.9 0.0 0.0
03:46 15.3 15.3 100 1031.0 3.8 NW 6.9 0.0 0.0
03:47 15.3 15.3 100 1031.1 3.8 NW 6.9 0.0 0.0
03:48 15.3 15.3 100 1030.9 3.8 NW 6.9 0.0 0.0
03:49 15.3 15.3 100 1030.9 3.8 NW 6.9 0.0 0.0
03:50 15.4 15.4 100 1031.0 3.8 NW 6.9 0.0 0.0
03:51 15.4 15.4 100 1030.9 2.2 NW 6.9 0.0 0.0
03:52 15.4 15.4 100 1031.0 2.2 NW 6.9 0.0 0.0
03:54 15.4 15.4 100 1030.9 5.4 NW 6.9 0.0 0.0
03:55 15.4 15.4 100 1031.0 3.1 N 6.0 0.0 0.0
03:56 15.4 15.4 100 1031.0 5.4 N 6.0 0.0 0.0
03:57 15.4 15.4 100 1030.8 3.1 SW 6.0 0.0 0.0
03:58 15.4 15.4 100 1030.8 5.4 N 6.0 0.0 0.0
03:59 15.4 15.4 100 1031.0 3.8 N 6.0 0.0 0.0
04:00 15.4 15.4 100 1031.0 3.8 N 6.0 0.0 0.0
04:01 15.4 15.4 100 1030.9 3.8 N 6.0 0.0 0.0
04:02 15.4 15.4 100 1030.8 5.4 N 6.0 0.0 0.0
04:03 15.4 15.4 100 1031.0 5.4 W 6.0 0.0 0.0
04:04 15.4 15.4 100 1031.2 5.4 W 6.0 0.0 0.0
04:05 15.4 15.4 100 1031.0 5.4 W 6.0 0.0 0.0
04:06 15.5 15.5 100 1031.1 2.2 NE 5.4 0.0 0.0
04:08 15.5 15.5 100 1031.2 3.1 N 5.4 0.0 0.0
04:09 15.5 15.5 100 1031.3 3.8 N 5.4 0.0 0.0
04:10 15.5 15.5 100 1031.1 3.8 N 5.4 0.0 0.0
04:11 15.5 15.5 100 1031.2 5.4 NW 5.4 0.0 0.0
04:12 15.5 15.5 100 1031.0 5.4 NW 5.4 0.0 0.0
04:13 15.5 15.5 100 1030.9 6.0 N 6.0 0.0 0.0
04:14 15.5 15.5 100 1031.1 3.8 NW 6.0 0.0 0.0
04:15 15.5 15.5 100 1031.1 5.4 NW 6.0 0.0 0.0
04:16 15.5 15.5 100 1031.2 5.4 NW 6.0 0.0 0.0
04:17 15.5 15.5 100 1031.3 4.5 N 6.0 0.0 0.0
04:18 15.5 15.5 100 1030.9 4.5 NW 6.0 0.0 0.0
04:19 15.6 15.6 100 1031.1 3.8 N 6.0 0.0 0.0
04:20 15.6 15.6 100 1031.0 7.6 N 7.6 0.0 0.0
04:21 15.6 15.6 100 1031.1 7.6 N 7.6 0.0 0.0
04:23 15.6 15.6 100 1031.1 4.5 E 8.3 0.0 0.0
04:24 15.6 15.6 100 1031.2 3.8 NW 8.3 0.0 0.0
04:25 15.6 15.6 100 1031.0 3.8 SE 8.3 0.0 0.0
04:26 15.5 15.5 100 1031.2 3.8 NW 8.3 0.0 0.0
04:27 15.5 15.5 100 1031.2 3.8 N 8.3 0.0 0.0
04:28 15.5 15.5 100 1031.2 3.8 N 8.3 0.0 0.0
04:29 15.5 15.5 100 1031.2 8.3 NW 8.3 0.0 0.0
04:30 15.5 15.5 100 1031.1 6.0 N 8.3 0.0 0.0
04:31 15.5 15.5 100 1031.0 6.0 N 8.3 0.0 0.0
04:32 15.6 15.6 100 1031.3 6.9 N 8.3 0.0 0.0
04:33 15.6 15.6 100 1031.2 6.9 N 8.3 0.0 0.0
04:34 15.6 15.6 100 1031.1 4.5 N 8.3 0.0 0.0
04:35 15.6 15.6 100 1031.2 4.5 N 8.3 0.0 0.0
04:37 15.6 15.6 100 1031.3 3.1 N 8.3 0.0 0.0
04:38 15.6 15.6 100 1031.3 4.5 NW 8.3 0.0 0.0
04:39 15.6 15.6 100 1031.1 3.8 NNW 6.9 0.0 0.0
04:40 15.6 15.6 100 1031.4 3.8 NW 6.9 0.0 0.0
04:41 15.6 15.6 100 1031.1 4.5 NW 6.9 0.0 0.0
04:42 15.6 15.6 100 1031.3 4.5 NW 6.9 0.0 0.0
04:43 15.6 15.6 100 1031.3 4.5 N 4.5 0.0 0.0
04:44 15.6 15.6 100 1031.3 2.2 NW 4.5 0.0 0.0
04:45 15.6 15.6 100 1031.4 3.8 NE 4.5 0.0 0.0
04:46 15.6 15.6 100 1031.3 4.5 SW 4.5 0.0 0.0
04:47 15.6 15.6 100 1031.3 4.5 SW 4.5 0.0 0.0
04:48 15.6 15.6 100 1031.6 3.8 NW 4.5 0.0 0.0
04:49 15.6 15.6 100 1031.3 3.8 W 4.5 0.0 0.0
04:50 15.7 15.7 100 1031.3 6.9 SW 6.9 0.0 0.0
04:51 15.7 15.7 100 1031.2 4.5 N 6.9 0.0 0.0
04:52 15.7 15.7 100 1031.4 2.2 NW 6.9 0.0 0.0
04:53 15.7 15.7 100 1031.2 2.2 NW 6.9 0.0 0.0
04:54 15.7 15.7 100 1031.2 3.1 NE 6.9 0.0 0.0
04:55 15.7 15.7 100 1031.2 2.2 N 6.9 0.0 0.0
04:56 15.7 15.7 100 1031.3 3.1 NW 6.9 0.0 0.0
04:57 15.7 15.7 100 1031.3 3.1 NW 6.9 0.0 0.0
04:58 15.7 15.7 100 1031.2 3.1 NE 6.9 0.0 0.0
04:59 15.7 15.7 100 1031.3 2.2 NW 6.9 0.0 0.0
05:00 15.7 15.7 100 1031.2 3.8 NW 6.9 0.0 0.0
05:01 15.7 15.7 100 1031.3 3.8 NW 5.4 0.0 0.0
05:02 15.7 15.7 100 1031.1 3.8 NW 4.5 0.0 0.0
05:03 15.7 15.7 100 1031.3 3.8 NW 3.8 0.0 0.0
05:04 15.7 15.7 100 1031.2 3.8 NW 3.8 0.0 0.0
05:05 15.7 15.7 100 1030.9 3.8 NW 3.8 0.0 0.0
05:07 15.7 15.7 100 1031.1 3.8 NW 3.8 0.0 0.0
05:08 15.7 15.7 100 1031.1 3.1 N 3.8 0.0 0.0
05:09 15.7 15.7 100 1031.1 3.8 NW 3.8 0.0 0.0
05:10 15.7 15.7 100 1031.1 3.8 WNW 3.8 0.0 0.0
05:11 15.7 15.7 100 1031.1 4.5 NW 4.5 0.0 0.0
05:12 15.7 15.7 100 1031.1 4.5 NW 4.5 0.0 0.0
05:13 15.7 15.7 100 1031.2 3.1 NW 4.5 0.0 0.0
05:14 15.7 15.7 100 1031.0 2.2 W 4.5 0.0 0.0
05:15 15.7 15.7 100 1031.1 1.6 NW 4.5 0.0 0.0
05:16 15.7 15.7 100 1031.2 3.1 NW 4.5 0.0 0.0
05:17 15.7 15.7 100 1031.1 3.1 N 4.5 0.0 0.0
05:18 15.7 15.7 100 1031.2 3.8 NW 4.5 0.0 0.0
05:19 15.7 15.7 100 1031.0 3.8 NW 4.5 0.0 0.0
05:21 15.7 15.7 100 1031.2 3.1 NW 4.5 0.0 0.0
05:22 15.7 15.7 100 1031.1 3.8 W 3.8 0.0 0.0
05:23 15.7 15.7 100 1031.1 4.5 N 4.5 0.0 0.0
05:24 15.7 15.7 100 1031.0 2.2 NW 4.5 0.0 0.0
05:25 15.7 15.7 100 1031.0 3.1 N 4.5 0.0 0.0
05:26 15.7 15.7 100 1031.0 4.5 NW 4.5 0.0 0.0
05:27 15.7 15.7 100 1030.9 2.2 N 4.5 0.0 0.0
05:28 15.7 15.7 100 1031.0 4.5 NW 4.5 0.0 0.0
05:29 15.7 15.7 100 1031.1 3.1 N 4.5 0.0 0.0
05:30 15.7 15.7 100 1030.8 2.2 N 4.5 0.0 0.0
05:31 15.7 15.7 100 1031.0 3.8 NE 4.5 0.0 0.0
05:32 15.7 15.7 100 1030.8 4.5 N 4.5 0.0 0.0
05:33 15.7 15.7 100 1031.0 4.5 NW 4.5 0.0 0.0
05:34 15.7 15.7 100 1031.0 3.1 NW 4.5 0.0 0.0
05:35 15.7 15.7 100 1031.1 1.6 NE 4.5 0.0 0.0
05:36 15.7 15.7 100 1031.1 1.6 NE 4.5 0.0 0.0
05:37 15.7 15.7 100 1030.9 2.2 W 4.5 0.0 0.0
05:38 15.7 15.7 100 1031.0 4.5 N 4.5 0.0 0.0
05:39 15.7 15.7 100 1031.1 5.4 N 5.4 0.0 0.0
05:40 15.7 15.7 100 1031.2 3.1 N 5.4 0.0 0.0
05:41 15.7 15.7 100 1030.9 3.1 NW 5.4 0.0 0.0
05:42 15.7 15.7 100 1031.0 3.1 W 5.4 0.0 0.0
05:43 15.7 15.7 100 1030.8 0.7 N 5.4 0.0 0.0
05:44 15.7 15.7 100 1031.0 1.6 N 5.4 0.0 0.0
05:45 15.7 15.7 100 1031.0 1.6 NW 5.4 0.0 0.0
05:46 15.7 15.7 100 1030.8 3.8 NW 5.4 0.0 0.0
05:47 15.7 15.7 100 1031.0 1.6 SW 5.4 0.0 0.0
05:49 15.7 15.7 100 1030.8 2.2 NE 3.8 0.0 0.0
05:50 15.7 15.7 100 1031.0 2.2 N 3.8 0.0 0.0
05:51 15.7 15.7 100 1030.8 2.2 N 3.8 0.0 0.0
05:52 15.7 15.7 100 1030.7 0.7 N 3.8 0.0 0.0
05:53 15.7 15.7 100 1031.0 0.7 NW 3.8 0.0 0.0
05:54 15.7 15.7 100 1030.9 2.2 NW 3.8 0.0 0.0
05:55 15.7 15.7 100 1031.1 1.6 NW 3.8 0.0 0.0
05:56 15.7 15.7 100 1031.0 1.6 NW 3.8 0.0 0.0
05:57 15.7 15.7 100 1031.1 1.6 NW 2.2 0.0 0.0
05:58 15.7 15.7 100 1030.8 1.6 NW 2.2 0.0 0.0
05:59 15.7 15.7 100 1031.0 1.6 NW 2.2 0.0 0.0
06:00 15.7 15.7 100 1030.8 1.6 NW 2.2 0.0 0.0
06:01 15.7 15.7 100 1030.8 1.6 NW 2.2 0.0 0.0
06:04 15.8 15.8 100 1030.9 1.6 NW 2.2 0.0 0.0
06:05 15.8 15.8 100 1030.8 1.6 NW 2.2 0.0 0.0
06:06 15.7 15.7 100 1031.0 2.2 NW 2.2 0.0 0.0
06:07 15.8 15.8 100 1030.9 2.2 N 2.2 0.0 0.0
06:08 15.8 15.8 100 1031.0 3.1 NW 3.1 0.0 0.0
06:09 15.8 15.8 100 1031.0 3.1 NW 3.1 0.0 0.0
06:10 15.8 15.8 100 1030.9 2.2 NW 3.1 0.0 0.0
06:11 15.8 15.8 100 1030.9 2.2 N 3.1 0.0 0.0
06:12 15.8 15.8 100 1030.8 2.2 NW 3.1 0.0 0.0
06:13 15.8 15.8 100 1030.7 2.2 NW 3.1 0.0 0.0
06:14 15.8 15.8 100 1031.1 3.8 N 3.8 0.0 0.0
06:15 15.8 15.8 100 1031.1 3.1 NW 3.8 0.0 0.0
06:16 15.8 15.8 100 1031.2 3.8 NW 3.8 0.0 0.0
06:17 15.8 15.8 100 1031.1 2.2 NW 3.8 0.0 0.0
06:18 15.8 15.8 100 1030.9 3.8 NW 3.8 0.0 0.0
06:19 15.8 15.8 100 1031.0 2.2 NW 3.8 0.0 0.0
06:20 15.8 15.8 100 1031.1 1.6 NE 3.8 0.0 0.0
06:21 15.8 15.8 100 1031.1 1.6 NW 3.8 0.0 0.0
06:22 15.8 15.8 100 1031.0 3.8 NE 3.8 0.0 0.0
06:23 15.8 15.8 100 1030.8 3.8 NW 3.8 0.0 0.0
06:24 15.8 15.8 100 1030.9 3.1 N 3.8 0.0 0.0
06:25 15.8 15.8 100 1030.8 3.8 NE 3.8 0.0 0.0
06:26 15.8 15.8 100 1030.9 2.2 N 3.8 0.0 0.0
06:27 15.9 15.9 100 1030.9 1.6 N 3.8 0.0 0.0
06:28 15.9 15.9 100 1031.1 2.2 NW 3.8 0.0 0.0
06:29 15.9 15.9 100 1031.0 2.2 NW 3.8 0.0 0.0
06:30 15.9 15.9 100 1031.2 1.6 NW 3.8 0.0 0.0
06:32 15.9 15.9 100 1031.0 3.8 N 3.8 0.0 0.0
06:33 15.9 15.9 100 1030.9 3.1 NE 3.8 0.0 0.0
06:34 15.9 15.9 100 1030.9 2.2 NW 3.8 0.0 0.0
06:35 16.0 16.0 100 1030.8 2.2 NE 3.8 0.0 0.0
06:36 16.0 16.0 100 1030.9 2.2 NE 3.8 0.0 0.0
06:37 16.0 16.0 100 1031.0 2.2 NE 3.8 0.0 0.0
06:38 16.0 16.0 100 1030.9 1.6 N 3.8 0.0 0.0
06:39 16.0 16.0 100 1030.9 1.6 N 3.8 0.0 0.0
06:40 16.0 16.0 100 1030.8 0.7 N 3.8 0.0 0.0
06:41 16.0 16.0 100 1030.8 0.7 NW 3.8 0.0 0.0
06:42 16.0 16.0 100 1030.8 0.7 NE 3.8 0.0 0.0
06:43 16.0 16.0 100 1031.0 1.6 N 3.1 0.0 0.0
06:44 16.0 16.0 100 1030.9 0.7 NW 2.2 0.0 0.0
06:46 16.1 16.1 100 1030.7 3.1 NW 3.1 0.0 0.0
06:47 16.1 16.1 100 1030.9 3.1 N 3.1 0.0 0.0
06:48 16.0 16.0 100 1030.8 2.2 NW 3.1 0.0 0.0
06:49 16.0 16.0 100 1030.9 2.2 NE 3.1 0.0 0.0
06:50 16.0 16.0 100 1030.7 3.1 N 3.1 0.0 0.0
06:51 16.0 16.0 100 1030.9 1.6 NE 3.1 0.0 0.0
06:52 16.0 16.0 100 1030.9 2.2 N 3.1 0.0 0.0
06:53 16.0 16.0 100 1030.9 2.2 N 3.1 0.0 0.0
06:54 16.0 16.0 100 1030.8 0.7 NW 3.1 0.0 0.0
06:55 16.0 16.0 100 1030.7 3.1 W 3.1 0.0 0.0
06:56 16.0 16.0 100 1030.8 3.1 SW 3.1 0.0 0.0
06:57 16.0 16.0 100 1030.9 1.6 W 3.1 0.0 0.0
06:58 16.0 16.0 100 1030.8 1.6 SW 3.1 0.0 0.0
06:59 16.0 16.0 100 1030.7 1.6 SW 3.1 0.0 0.0
07:01 16.0 16.0 100 1030.9 3.1 N 3.1 0.0 0.0
07:02 16.0 16.0 100 1030.8 3.1 N 3.1 0.0 0.0
07:03 16.0 16.0 100 1030.7 3.1 N 3.1 0.0 0.0
07:04 16.0 16.0 100 1030.9 3.1 N 3.1 0.0 0.0
07:05 16.0 16.0 100 1030.9 3.8 W 3.8 0.0 0.0
07:06 16.0 16.0 100 1030.9 3.8 W 3.8 0.0 0.0
07:07 16.0 16.0 100 1030.8 3.1 NW 3.8 0.0 0.0
07:08 16.0 16.0 100 1031.1 3.1 NW 3.8 0.0 0.0
07:09 16.0 16.0 100 1031.1 0.7 N 3.8 0.0 0.0
07:10 16.0 16.0 100 1031.1 3.1 N 3.8 0.0 0.0
07:11 16.0 16.0 100 1031.1 3.1 N 3.8 0.0 0.0
07:12 16.1 16.1 100 1031.0 0.7 W 3.8 0.0 0.0
07:13 16.1 16.1 100 1031.0 1.6 N 3.8 0.0 0.0
07:15 16.1 16.1 100 1031.1 0.7 NW 3.8 0.0 0.0
07:16 16.1 16.1 100 1030.8 2.2 NW 3.8 0.0 0.0
07:17 16.1 16.1 100 1031.1 3.8 N 3.8 0.0 0.0
07:18 16.2 16.2 100 1031.0 2.2 NW 3.8 0.0 0.0
07:19 16.2 16.2 100 1031.0 2.2 N 3.8 0.0 0.0
07:20 16.2 16.2 100 1031.0 4.5 S 4.5 0.0 0.0
07:21 16.2 16.2 100 1031.0 4.5 S 4.5 0.0 0.0
07:22 16.2 16.2 100 1031.1 3.8 NE 4.5 0.0 0.0
07:23 16.2 16.2 100 1031.0 2.2 NE 4.5 0.0 0.0
07:24 16.2 16.2 100 1030.9 0.7 NW 4.5 0.0 0.0
07:25 16.2 16.2 100 1030.9 0.7 N 4.5 0.0 0.0
07:26 16.2 16.2 100 1031.0 2.2 NW 4.5 0.0 0.0
07:27 16.3 16.3 100 1031.1 3.1 NW 4.5 0.0 0.0
07:28 16.3 16.3 100 1031.0 3.1 NW 4.5 0.0 0.0
07:30 16.3 16.3 100 1030.9 4.5 NW 4.5 0.0 0.0
07:31 16.3 16.3 100 1031.0 3.1 NW 4.5 0.0 0.0
07:32 16.3 16.3 100 1031.1 3.1 NW 4.5 0.0 0.0
07:33 16.3 16.3 100 1031.0 4.5 NW 4.5 0.0 0.0
07:34 16.3 16.3 100 1031.1 5.4 NW 5.4 0.0 0.0
07:35 16.3 16.3 100 1031.1 4.5 N 5.4 0.0 0.0
07:36 16.3 16.3 100 1031.3 3.8 NW 5.4 0.0 0.0
07:37 16.3 16.3 100 1031.3 4.5 NW 5.4 0.0 0.0
07:38 16.3 16.3 100 1031.3 4.5 NW 5.4 0.0 0.0
07:39 16.3 16.3 100 1031.2 5.4 NW 5.4 0.0 0.0
07:40 16.3 16.3 100 1031.4 5.4 NW 5.4 0.0 0.0
07:41 16.3 16.3 100 1031.4 5.4 NW 5.4 0.0 0.0
07:42 16.3 16.3 100 1031.4 5.4 WNW 5.4 0.0 0.0
07:44 16.4 16.4 100 1031.4 4.5 SW 6.0 0.0 0.0
07:45 16.4 16.4 100 1031.4 6.0 N 6.0 0.0 0.0
07:46 16.4 16.4 100 1031.3 6.0 N 6.0 0.0 0.0
07:47 16.4 16.4 100 1031.5 6.0 N 6.0 0.0 0.0
07:48 16.4 16.4 100 1031.5 6.0 NW 6.9 0.0 0.0
07:49 16.4 16.4 100 1031.4 6.0 NE 6.9 0.0 0.0
07:50 16.4 16.4 100 1031.4 6.0 NE 6.9 0.0 0.0
07:51 16.4 16.4 100 1031.4 6.0 N 6.9 0.0 0.0
07:52 16.4 16.4 100 1031.3 6.9 NW 6.9 0.0 0.0
07:53 16.4 16.4 100 1031.4 4.5 NW 6.9 0.0 0.0
07:54 16.4 16.4 100 1031.3 7.6 NW 7.6 0.0 0.0
07:55 16.5 16.5 100 1031.2 9.8 NW 9.8 0.0 0.0
07:56 16.5 16.5 100 1031.3 8.3 NW 9.8 0.0 0.0
07:58 16.5 16.5 100 1031.4 9.2 NW 9.8 0.0 0.0
07:59 16.5 16.5 100 1031.4 6.9 NW 9.8 0.0 0.0
08:00 16.5 16.5 100 1031.5 6.0 NW 9.8 0.0 0.0
08:01 16.5 16.5 100 1031.6 6.0 NW 9.8 0.0 0.0
08:02 16.5 16.5 100 1031.6 6.0 NW 9.8 0.0 0.0
08:03 16.5 16.5 100 1031.5 6.0 NW 9.8 0.0 0.0
08:04 16.5 16.5 100 1031.3 6.0 NW 9.8 0.0 0.0
08:05 16.4 16.4 100 1031.6 8.3 NW 9.2 0.0 0.0
08:06 16.4 16.4 100 1031.6 8.3 NW 9.2 0.0 0.0
08:07 16.4 16.4 100 1031.6 9.2 NW 9.2 0.0 0.0
08:08 16.4 16.4 100 1031.4 4.5 NW 9.2 0.0 0.0
08:09 16.4 16.4 100 1031.6 5.4 W 9.2 0.0 0.0
08:10 16.4 16.4 100 1031.6 4.5 NW 9.2 0.0 0.0
08:11 16.4 16.4 100 1031.5 5.4 NW 9.2 0.0 0.0
08:12 16.4 16.4 100 1031.6 5.4 N 9.2 0.0 0.0
08:13 16.4 16.4 100 1031.5 6.0 W 9.2 0.0 0.0
08:14 16.4 16.4 100 1031.6 6.0 NW 9.2 0.0 0.0
08:16 16.4 16.4 100 1031.7 6.9 W 9.2 0.0 0.0
08:17 16.4 16.4 100 1031.8 6.9 SW 6.9 0.0 0.0
08:18 16.4 16.4 100 1031.6 7.6 NW 7.6 0.0 0.0
08:19 16.4 16.4 100 1031.7 5.4 NW 7.6 0.0 0.0
08:20 16.4 16.4 100 1031.6 7.6 N 7.6 0.0 0.0
08:21 16.4 16.4 100 1031.6 4.5 N 7.6 0.0 0.0
08:22 16.4 16.4 100 1031.6 4.5 N 7.6 0.0 0.0
08:23 16.3 16.3 100 1031.4 3.1 W 7.6 0.0 0.0
08:24 16.3 16.3 100 1031.6 3.1 W 7.6 0.0 0.0
08:25 16.3 16.3 100 1031.7 3.8 NW 7.6 0.0 0.0
08:26 16.3 16.3 100 1031.5 5.4 NW 7.6 0.0 0.0
08:27 16.3 16.3 100 1031.5 4.5 W 7.6 0.0 0.0
08:28 16.3 16.3 100 1031.6 5.4 N 7.6 0.0 0.0
08:29 16.3 16.3 100 1031.7 4.5 NNE 7.6 0.0 0.0
08:30 16.3 16.3 100 1031.7 6.0 WNW 7.6 0.0 0.0
08:32 16.3 16.3 100 1031.9 4.5 NW 6.0 0.0 0.0
08:33 16.3 16.3 100 1031.9 5.4 NW 6.0 0.0 0.0
08:34 16.3 16.3 100 1031.8 6.0 W 6.0 0.0 0.0
08:35 16.3 16.3 100 1031.7 5.4 NW 6.0 0.0 0.0
08:36 16.2 16.2 100 1031.6 4.5 NW 6.0 0.0 0.0
08:37 16.2 16.2 100 1031.7 7.6 S 7.6 0.0 0.0
08:38 16.2 16.2 100 1031.7 7.6 NE 7.6 0.0 0.0
08:39 16.2 16.2 100 1031.8 4.5 NW 7.6 0.0 0.0
08:40 16.2 16.2 100 1031.5 3.8 N 7.6 0.0 0.0
08:41 16.2 16.2 100 1031.5 5.4 SW 7.6 0.0 0.0
08:42 16.2 16.2 100 1031.7 5.4 NW 7.6 0.0 0.0
08:43 16.2 16.2 100 1031.8 4.5 NW 7.6 0.0 0.0
08:44 16.2 16.2 100 1031.7 5.4 W 7.6 0.0 0.0
08:45 16.2 16.2 100 1031.9 4.5 NW 7.6 0.0 0.0
08:47 16.2 16.2 100 1031.7 4.5 W 7.6 0.0 0.0
08:48 16.1 16.1 100 1031.6 6.9 NW 7.6 0.0 0.0
08:49 16.1 16.1 100 1031.7 7.6 SE 7.6 0.0 0.0
08:50 16.1 16.1 100 1031.8 7.6 W 7.6 0.0 0.0
08:51 16.1 16.1 100 1031.5 7.6 N 7.6 0.0 0.0
08:52 16.1 16.1 100 1031.5 4.5 NW 7.6 0.0 0.0
08:53 16.1 16.1 100 1031.5 4.5 NW 7.6 0.0 0.0
08:54 16.1 16.1 100 1031.6 2.2 NNW 7.6 0.0 0.0
08:55 16.1 16.1 100 1031.6 3.1 W 7.6 0.0 0.0
08:56 16.1 16.1 100 1031.7 3.8 NW 7.6 0.0 0.0
08:57 16.1 16.1 100 1031.6 5.4 NW 7.6 0.0 0.0
08:58 16.1 16.1 100 1031.7 7.6 NW 7.6 0.0 0.0
08:59 16.1 16.1 100 1031.3 8.3 NW 8.3 0.0 0.0
09:00 16.1 16.1 100 1031.6 8.3 NW 8.3 0.0 0.0
09:02 16.1 16.1 100 1031.7 8.3 NW 8.3 0.0 0.0
09:03 16.1 16.1 100 1031.5 8.3 NW 8.3 0.0 0.0
09:04 16.1 16.1 100 1031.6 8.3 NW 8.3 0.0 0.0
09:05 16.1 16.1 100 1031.5 6.0 N 8.3 0.0 0.0
09:06 16.1 16.1 100 1031.4 3.1 W 8.3 0.0 0.0
09:07 16.1 16.1 100 1031.7 4.5 NW 8.3 0.0 0.0
09:08 16.1 16.1 100 1031.4 5.4 W 8.3 0.0 0.0
09:09 16.1 16.1 100 1031.3 6.0 NW 8.3 0.0 0.0
09:10 16.1 16.1 100 1031.6 6.0 N 8.3 0.0 0.0
09:11 16.1 16.1 100 1031.4 6.0 N 8.3 0.0 0.0
09:12 16.1 16.1 100 1031.3 3.8 W 8.3 0.0 0.0
09:13 16.1 16.1 100 1031.5 4.5 NW 8.3 0.0 0.0
09:14 16.1 16.1 100 1031.6 6.0 NW 8.3 0.0 0.0
09:15 16.2 16.2 100 1031.5 6.9 N 6.9 0.0 0.0
09:16 16.2 16.2 100 1031.7 6.9 N 6.9 0.0 0.0
09:17 16.2 16.2 100 1031.6 5.4 W 6.9 0.0 0.0
09:19 16.2 16.2 100 1031.6 3.1 N 6.9 0.0 0.0
09:20 16.2 16.2 100 1031.4 6.9 NW 7.6 0.0 0.0
09:21 16.2 16.2 100 1031.5 5.4 N 7.6 0.0 0.0
09:22 16.2 16.2 100 1031.4 5.4 N 7.6 0.0 0.0
09:23 16.2 16.2 100 1031.7 6.0 NW 7.6 0.0 0.0
09:24 16.2 16.2 100 1031.5 4.5 NW 7.6 0.0 0.0
09:25 16.2 16.2 100 1031.5 4.5 NW 7.6 0.0 0.0
09:26 16.2 16.2 100 1031.5 3.8 NW 7.6 0.0 0.0
09:27 16.2 16.2 100 1031.3 6.9 N 7.6 0.0 0.0
09:28 16.2 16.2 100 1031.6 6.9 NW 7.6 0.0 0.0
09:29 16.2 16.2 100 1031.6 7.6 W 7.6 0.0 0.0
09:30 16.2 16.2 100 1031.7 6.9 NW 7.6 0.0 0.0
09:31 16.2 16.2 100 1031.5 6.9 NE 7.6 0.0 0.0
09:32 16.2 16.2 100 1031.8 6.9 NE 7.6 0.0 0.0
09:33 16.2 16.2 100 1031.6 6.0 NW 7.6 0.0 0.0
09:35 16.2 16.2 100 1031.6 8.3 NW 8.3 0.0 0.0
09:36 16.2 16.2 100 1031.7 5.4 NW 8.3 0.0 0.0
09:37 16.2 16.2 100 1031.7 5.4 NNE 8.3 0.0 0.0
09:38 16.2 16.2 100 1031.8 6.0 N 8.3 0.0 0.0
09:39 16.2 16.2 100 1031.5 6.0 NE 8.3 0.0 0.0
09:40 16.2 16.2 100 1031.8 6.0 NW 8.3 0.0 0.0
09:41 16.2 16.2 100 1031.8 6.0 NW 8.3 0.0 0.0
09:42 16.2 16.2 100 1031.7 6.0 NE 8.3 0.0 0.0
09:43 16.2 16.2 100 1031.7 4.5 SE 8.3 0.0 0.0
09:44 16.2 16.2 100 1031.6 6.0 NW 8.3 0.0 0.0
09:45 16.2 16.2 100 1031.8 6.9 N 8.3 0.0 0.0
09:46 16.2 16.2 100 1031.7 5.4 NE 7.6 0.0 0.0
09:47 16.2 16.2 100 1031.6 8.3 E 8.3 0.0 0.0
09:48 16.2 16.2 100 1031.7 6.9 NE 8.3 0.0 0.0
09:49 16.3 16.3 100 1031.8 3.8 NW 8.3 0.0 0.0
09:50 16.3 16.3 100 1031.7 3.8 W 8.3 0.0 0.0
09:51 16.3 16.3 100 1031.7 3.1 N 8.3 0.0 0.0
09:52 16.3 16.3 100 1031.8 6.0 N 8.3 0.0 0.0
09:53 16.3 16.3 100 1031.6 6.9 N 8.3 0.0 0.0
09:54 16.3 16.3 100 1031.6 4.5 N 8.3 0.0 0.0
09:55 16.4 16.4 100 1031.7 3.8 W 8.3 0.0 0.0
09:56 16.4 16.4 100 1031.5 4.5 N 8.3 0.0 0.0
09:57 16.4 16.4 100 1031.5 3.8 NW 8.3 0.0 0.0
09:58 16.4 16.4 100 1031.4 3.8 N 6.9 0.0 0.0
09:59 16.5 16.5 100 1031.5 5.4 NW 6.9 0.0 0.0
10:00 16.5 16.5 100 1031.6 6.0 NW 6.9 0.0 0.0
10:01 16.5 16.5 100 1031.6 6.0 NW 6.9 0.0 0.0
10:02 16.5 16.5 100 1031.6 6.0 NW 6.9 0.0 0.0
10:03 16.5 16.5 100 1031.4 6.0 NW 6.9 0.0 0.0
10:04 16.5 16.5 100 1031.6 6.0 NW 6.0 0.0 0.0
10:06 16.6 16.5 99 1031.6 7.6 W 8.3 0.0 0.0
10:07 16.6 16.5 99 1031.6 4.5 WNW 8.3 0.0 0.0
10:08 16.6 16.5 99 1031.5 6.0 NE 8.3 0.0 0.0
10:09 16.6 16.5 99 1031.6 6.0 W 8.3 0.0 0.0
10:10 16.6 16.5 99 1031.6 7.6 N 8.3 0.0 0.0
10:11 16.6 16.5 99 1031.7 4.5 E 8.3 0.0 0.0
10:12 16.6 16.5 99 1031.6 6.0 NE 8.3 0.0 0.0
10:13 16.7 16.6 99 1031.4 6.0 N 8.3 0.0 0.0
10:14 16.7 16.6 99 1031.9 6.0 W 8.3 0.0 0.0
10:15 16.7 16.4 98 1031.5 9.2 N 9.2 0.0 0.0
10:16 16.8 16.5 98 1031.7 6.9 SW 9.2 0.0 0.0
10:17 16.8 16.5 98 1031.7 7.6 NW 9.2 0.0 0.0
10:18 16.8 16.3 97 1031.7 4.5 N 9.2 0.0 0.0
10:19 16.9 16.4 97 1031.7 5.4 N 9.2 0.0 0.0
10:21 17.0 16.2 95 1031.7 6.9 N 9.2 0.0 0.0
10:22 17.0 16.2 95 1031.6 6.9 NW 9.2 0.0 0.0
10:23 17.1 16.3 95 1031.7 4.5 NE 9.2 0.0 0.0
10:24 17.2 16.2 94 1031.8 3.8 N 9.2 0.0 0.0
10:25 17.2 16.2 94 1031.7 5.4 N 9.2 0.0 0.0
10:26 17.2 16.2 94 1031.7 5.4 N 9.2 0.0 0.0
10:27 17.3 16.3 94 1031.6 8.3 NW 9.2 0.0 0.0
10:28 17.3 16.2 93 1031.5 6.0 NE 9.2 0.0 0.0
10:29 17.4 16.3 93 1031.7 8.3 NE 9.2 0.0 0.0
10:30 17.5 15.9 90 1031.6 5.4 N 9.2 0.0 0.0
10:31 17.6 16.0 90 1031.5 8.3 N 9.2 0.0 0.0
10:32 17.6 15.8 89 1031.5 7.6 NW 8.3 0.0 0.0
10:33 17.6 15.8 89 1031.5 7.6 NE 8.3 0.0 0.0
10:34 17.7 15.7 88 1031.5 4.5 NW 8.3 0.0 0.0
10:36 17.8 15.6 87 1031.6 7.6 SW 9.8 0.0 0.0
10:37 17.8 15.4 86 1031.4 6.9 N 9.8 0.0 0.0
10:38 17.8 15.4 86 1031.5 6.9 WNW 9.8 0.0 0.0
10:39 17.9 15.4 85 1031.6 6.9 NW 9.8 0.0 0.0
10:40 17.9 15.4 85 1031.6 9.2 NE 9.8 0.0 0.0
10:41 18.0 15.5 85 1031.6 6.9 N 9.8 0.0 0.0
10:42 18.0 15.5 85 1031.4 7.6 NW 9.8 0.0 0.0
10:43 18.0 15.3 84 1031.5 9.2 NE 9.8 0.0 0.0
10:44 18.0 15.3 84 1031.5 9.8 NW 9.8 0.0 0.0
10:45 18.0 15.3 84 1031.7 9.8 NW 9.8 0.0 0.0
10:46 18.0 15.3 84 1031.7 9.8 SW 9.8 0.0 0.0
10:47 18.1 15.4 84 1031.8 5.4 N 9.8 0.0 0.0
10:48 18.2 15.5 84 1031.6 5.4 SSW 9.8 0.0 0.0
10:49 18.2 15.5 84 1031.7 7.6 NW 9.8 0.0 0.0
10:50 18.2 15.5 84 1031.7 8.3 N 9.8 0.0 0.0
10:51 18.2 15.3 83 1031.8 8.3 N 10.7 0.0 0.0
10:52 18.2 15.3 83 1031.7 10.7 NW 10.7 0.0 0.0
10:54 18.2 15.3 83 1031.8 9.8 NW 10.7 0.0 0.0
10:55 18.2 15.1 82 1031.6 8.3 N 10.7 0.0 0.0
10:56 18.2 15.3 83 1031.7 6.9 NW 10.7 0.0 0.0
10:57 18.2 15.1 82 1031.7 6.9 NW 10.7 0.0 0.0
10:58 18.3 15.2 82 1031.7 9.2 NW 10.7 0.0 0.0
10:59 18.3 15.2 82 1031.7 9.2 SE 10.7 0.0 0.0
11:00 18.3 15.2 82 1031.8 4.5 W 10.7 0.0 0.0
11:01 18.3 15.2 82 1031.8 4.5 W 10.7 0.0 0.0
11:02 18.3 15.2 82 1031.8 4.5 W 10.7 0.0 0.0
11:03 18.4 15.3 82 1031.8 8.3 NE 10.7 0.0 0.0
11:04 18.5 15.6 83 1031.8 12.1 NW 12.1 0.0 0.0
11:05 18.6 15.7 83 1031.7 12.1 W 12.1 0.0 0.0
11:06 18.6 15.7 83 1031.7 11.4 N 12.1 0.0 0.0
11:07 18.5 15.4 82 1031.8 7.6 NW 12.1 0.0 0.0
11:08 18.5 15.4 82 1031.8 5.4 SW 12.1 0.0 0.0
11:09 18.5 15.4 82 1032.0 13.0 W 13.0 0.0 0.0
11:10 18.5 15.4 82 1031.9 13.0 W 13.0 0.0 0.0
11:12 18.5 15.2 81 1031.8 11.4 W 13.0 0.0 0.0
11:13 18.5 15.2 81 1031.7 11.4 N 13.0 0.0 0.0
11:15 18.6 15.3 81 1031.7 11.4 N 13.0 0.0 0.0
11:16 18.6 15.3 81 1031.8 11.4 NE 13.0 0.0 0.0
11:17 18.6 15.1 80 1031.6 12.1 N 13.0 0.0 0.0
11:18 18.6 15.1 80 1031.6 9.2 N 13.0 0.0 0.0
11:19 18.6 15.1 80 1031.6 6.9 N 13.0 0.0 0.0
11:20 18.8 15.3 80 1031.9 9.8 N 12.1 0.0 0.0
11:21 18.9 15.4 80 1031.7 9.2 W 12.1 0.0 0.0
11:22 18.9 15.4 80 1031.7 9.2 W 12.1 0.0 0.0
11:23 19.0 15.5 80 1031.7 13.0 NW 13.0 0.0 0.0
11:24 19.0 15.5 80 1031.8 8.3 N 13.0 0.0 0.0
11:25 19.1 15.6 80 1031.8 11.4 W 13.0 0.0 0.0
11:26 19.2 15.7 80 1031.8 9.8 NE 13.0 0.0 0.0
11:27 19.2 15.7 80 1031.8 9.8 NW 13.0 0.0 0.0
11:28 19.2 15.5 79 1031.9 9.8 NW 13.0 0.0 0.0
11:29 19.2 15.5 79 1031.7 11.4 NE 13.0 0.0 0.0
11:30 19.2 15.5 79 1031.7 7.6 NE 13.0 0.0 0.0
11:32 19.2 15.3 78 1031.8 11.4 N 13.0 0.0 0.0
11:33 19.2 15.3 78 1031.6 7.6 W 13.0 0.0 0.0
11:34 19.2 15.3 78 1031.9 11.4 NW 11.4 0.0 0.0
11:35 19.2 15.3 78 1031.8 11.4 N 11.4 0.0 0.0
11:36 19.3 15.4 78 1031.7 6.0 NE 11.4 0.0 0.0
11:37 19.3 15.4 78 1031.7 6.9 N 11.4 0.0 0.0
11:38 19.3 15.4 78 1031.7 6.9 N 11.4 0.0 0.0
11:39 19.3 15.6 79 1031.8 5.4 NW 11.4 0.0 0.0
11:40 19.2 15.5 79 1031.7 7.6 W 11.4 0.0 0.0
11:41 19.2 15.5 79 1031.6 8.3 N 11.4 0.0 0.0
11:42 19.2 15.5 79 1031.7 7.6 N 11.4 0.0 0.0
11:43 19.2 15.5 79 1031.7 9.8 N 11.4 0.0 0.0
11:44 19.2 15.5 79 1031.6 11.4 WNW 11.4 0.0 0.0
11:45 19.2 15.5 79 1031.7 11.4 WNW 11.4 0.0 0.0
11:46 19.2 15.5 79 1031.9 11.4 WNW 11.4 0.0 0.0
11:47 19.4 15.7 79 1031.8 8.3 SW 11.4 0.0 0.0
11:49 19.5 15.4 77 1031.9 6.9 N 11.4 0.0 0.0
11:50 19.5 15.4 77 1031.6 10.7 NW 11.4 0.0 0.0
11:51 19.6 15.5 77 1031.7 9.8 NW 11.4 0.0 0.0
11:52 19.6 15.3 76 1031.8 9.8 NW 14.5 0.0 0.0
11:53 19.6 15.3 76 1031.7 9.8 W 14.5 0.0 0.0
11:54 19.6 15.1 75 1031.7 11.4 N 14.5 0.0 0.0
11:55 19.6 15.3 76 1031.8 11.4 N 14.5 0.0 0.0
11:56 19.7 15.6 77 1031.8 15.9 N 15.9 0.0 0.0
11:57 19.7 15.6 77 1031.8 15.9 N 15.9 0.0 0.0
11:58 19.7 15.6 77 1032.0 9.2 NE 15.9 0.0 0.0
11:59 19.5 15.2 76 1031.7 6.0 NW 15.9 0.0 0.0
12:00 19.5 15.2 76 1031.8 6.0 NW 15.9 0.0 0.0
12:01 19.5 15.2 76 1031.7 6.0 NW 15.9 0.0 0.0
12:02 19.5 15.2 76 1031.8 6.0 NW 15.9 0.0 0.0
12:03 19.5 15.2 76 1032.0 6.0 NW 15.9 0.0 0.0
12:04 19.5 15.2 76 1031.9 6.0 NW 15.9 0.0 0.0
12:05 19.5 15.2 76 1032.0 6.0 NW 15.9 0.0 0.0
12:06 19.1 14.8 76 1031.7 14.5 NE 15.9 0.0 0.0
12:07 19.1 15.0 77 1031.6 10.7 NW 14.5 0.0 0.0
12:08 19.1 15.0 77 1031.7 13.0 NW 14.5 0.0 0.0
12:09 19.1 15.0 77 1031.8 6.9 W 14.5 0.0 0.0
12:10 19.1 15.0 77 1032.0 6.0 W 14.5 0.0 0.0
12:11 19.2 15.1 77 1031.6 8.3 N 14.5 0.0 0.0
12:12 19.2 15.1 77 1031.8 9.2 N 14.5 0.0 0.0
12:13 19.2 15.1 77 1031.9 9.2 NW 14.5 0.0 0.0
12:14 19.2 15.1 77 1031.9 9.2 NW 14.5 0.0 0.0
12:15 19.3 15.0 76 1031.8 10.7 NW 14.5 0.0 0.0
12:16 19.4 15.1 76 1031.6 10.7 N 13.0 0.0 0.0
12:17 19.4 14.9 75 1032.0 7.6 NW 13.0 0.0 0.0
12:18 19.5 15.0 75 1031.8 8.3 N 13.0 0.0 0.0
12:19 19.5 14.8 74 1031.7 9.8 SW 13.0 0.0 0.0
12:20 19.6 14.9 74 1031.8 8.3 NE 13.0 0.0 0.0
12:21 19.6 15.1 75 1031.8 7.6 W 13.0 0.0 0.0
12:22 19.6 15.1 75 1031.8 11.4 E 13.0 0.0 0.0
12:24 19.6 14.4 72 1031.9 7.6 NW 11.4 0.0 0.0
12:25 19.6 14.4 72 1031.8 9.8 NE 11.4 0.0 0.0
12:26 19.7 14.5 72 1031.8 11.4 NE 11.4 0.0 0.0
12:27 19.7 14.3 71 1031.7 9.8 W 11.4 0.0 0.0
12:28 19.7 14.3 71 1031.7 5.4 NW 11.4 0.0 0.0
12:29 19.8 14.6 72 1031.7 10.7 N 11.4 0.0 0.0
12:30 19.8 14.6 72 1031.7 12.1 W 12.1 0.0 0.0
12:31 19.8 14.6 72 1031.7 13.0 W 13.0 0.0 0.0
12:32 19.9 14.5 71 1031.7 8.3 N 13.0 0.0 0.0
12:33 19.9 14.5 71 1031.7 7.6 NE 13.0 0.0 0.0
12:34 19.9 14.5 71 1031.8 11.4 N 13.0 0.0 0.0
12:35 19.9 14.5 71 1031.8 14.5 NW 14.5 0.0 0.0
12:36 19.9 14.5 71 1031.6 14.5 W 14.5 0.0 0.0
12:37 19.9 14.5 71 1031.8 9.2 N 14.5 0.0 0.0
12:38 19.9 14.7 72 1031.8 13.0 NW 14.5 0.0 0.0
12:40 20.0 14.8 72 1031.8 10.7 N 14.5 0.0 0.0
12:41 20.0 14.8 72 1031.9 9.8 NE 14.5 0.0 0.0
12:42 19.9 14.5 71 1031.9 9.8 NE 14.5 0.0 0.0
12:43 19.9 14.5 71 1032.0 9.8 NW 14.5 0.0 0.0
12:44 19.9 14.7 72 1031.8 9.2 N 14.5 0.0 0.0
12:45 19.9 14.7 72 1031.8 10.7 NE 14.5 0.0 0.0
12:46 20.0 14.8 72 1031.7 9.2 N 13.0 0.0 0.0
12:47 20.0 14.8 72 1031.7 12.1 N 13.0 0.0 0.0
12:48 20.1 14.9 72 1032.1 12.1 N 13.0 0.0 0.0
12:49 20.2 15.0 72 1031.8 7.6 W 13.0 0.0 0.0
12:50 20.3 15.1 72 1031.8 9.8 NW 13.0 0.0 0.0
12:51 20.4 15.2 72 1032.0 11.4 NE 12.1 0.0 0.0
12:52 20.3 14.9 71 1031.8 12.1 W 12.1 0.0 0.0
12:53 20.3 14.9 71 1031.9 8.3 N 12.1 0.0 0.0
12:54 20.3 14.9 71 1031.7 8.3 N 12.1 0.0 0.0
12:55 20.3 14.9 71 1031.8 13.0 N 13.0 0.0 0.0
12:56 20.2 14.6 70 1031.9 13.0 WNW 13.0 0.0 0.0
12:57 20.2 14.6 70 1031.8 13.0 WNW 13.0 0.0 0.0
12:59 19.8 14.2 70 1031.8 4.5 N 13.0 0.0 0.0
13:00 19.8 14.4 71 1031.8 16.8 SW 16.8 0.0 0.0
13:01 19.8 14.4 71 1031.8 16.8 SW 16.8 0.0 0.0
13:02 19.8 14.4 71 1031.6 16.8 SW 16.8 0.0 0.0
13:03 19.8 14.4 71 1031.6 16.8 SW 16.8 0.0 0.0
13:04 19.8 14.4 71 1031.8 16.8 SW 16.8 0.0 0.0
13:05 19.8 14.4 71 1031.6 13.0 N 16.8 0.0 0.0
13:06 19.8 14.4 71 1031.9 13.0 N 16.8 0.0 0.0
13:07 19.9 14.5 71 1032.0 8.3 NW 16.8 0.0 0.0
13:08 19.9 14.5 71 1031.8 8.3 NW 16.8 0.0 0.0
13:09 20.0 14.6 71 1031.9 12.1 NW 16.8 0.0 0.0
13:10 20.0 14.4 70 1031.9 8.3 W 16.8 0.0 0.0
13:11 20.0 14.4 70 1031.7 12.1 NW 16.8 0.0 0.0
13:12 20.0 14.4 70 1032.0 12.1 E 16.8 0.0 0.0
13:13 20.0 14.4 70 1031.9 11.4 E 16.8 0.0 0.0
13:14 20.0 14.6 71 1031.8 8.3 N 16.8 0.0 0.0
13:15 20.1 14.7 71 1031.9 13.6 W 14.5 0.0 0.0
13:16 20.1 14.5 70 1031.7 12.1 NW 14.5 0.0 0.0
13:17 20.0 14.4 70 1032.0 8.3 NW 14.5 0.0 0.0
13:18 20.0 14.4 70 1031.9 8.3 S 14.5 0.0 0.0
13:19 19.7 13.9 69 1032.1 8.3 NW 14.5 0.0 0.0
13:20 19.7 13.9 69 1031.9 8.3 NW 14.5 0.0 0.0
13:21 19.6 13.8 69 1032.0 9.2 N 13.6 0.0 0.0
13:22 19.5 13.7 69 1032.0 6.9 NW 13.6 0.0 0.0
13:23 19.4 13.8 70 1032.0 9.8 W 13.6 0.0 0.0
13:24 19.4 13.8 70 1032.0 9.8 W 13.6 0.0 0.0
13:26 19.2 13.8 71 1032.0 9.2 NW 9.8 0.0 0.0
13:27 19.1 13.7 71 1031.8 7.6 W 9.8 0.0 0.0
13:28 19.1 13.9 72 1031.7 10.7 W 10.7 0.0 0.0
13:29 19.2 14.3 73 1032.0 9.2 N 10.7 0.0 0.0
13:30 19.2 14.3 73 1031.8 11.4 NW 11.4 0.0 0.0
13:31 19.2 14.3 73 1031.9 6.9 NE 11.4 0.0 0.0
13:32 19.3 14.4 73 1031.9 9.8 W 11.4 0.0 0.0
13:33 19.3 14.4 73 1031.9 9.8 NW 11.4 0.0 0.0
13:34 19.2 14.3 73 1031.9 10.7 N 11.4 0.0 0.0
13:35 19.2 14.3 73 1031.9 8.3 SW 11.4 0.0 0.0
13:36 19.1 13.9 72 1031.9 6.9 NW 11.4 0.0 0.0
13:37 19.1 13.9 72 1031.8 9.2 NW 11.4 0.0 0.0
13:38 19.0 14.1 73 1031.8 8.3 NW 11.4 0.0 0.0
13:39 19.1 14.6 75 1031.7 7.6 N 11.4 0.0 0.0
13:40 19.1 14.6 75 1031.8 7.6 N 11.4 0.0 0.0
13:41 19.3 14.8 75 1031.9 10.7 NW 10.7 0.0 0.0
13:43 19.5 15.2 76 1031.8 9.2 W 10.7 0.0 0.0
13:44 19.5 15.0 75 1031.9 11.4 NW 11.4 0.0 0.0
13:45 19.5 14.8 74 1031.9 9.8 NW 11.4 0.0 0.0
13:46 19.4 14.4 73 1031.6 10.7 NW 11.4 0.0 0.0
13:47 19.3 14.4 73 1031.7 12.1 NW 12.1 0.0 0.0
13:48 19.2 14.3 73 1031.9 13.0 W 13.0 0.0 0.0
13:49 19.1 14.2 73 1031.9 9.8 N 13.0 0.0 0.0
13:50 19.1 14.2 73 1031.9 9.8 N 13.0 0.0 0.0
13:51 19.1 14.4 74 1032.1 12.1 N 13.0 0.0 0.0
13:52 19.0 14.3 74 1031.8 11.4 NW 13.0 0.0 0.0
13:53 19.0 14.3 74 1031.7 13.0 W 13.0 0.0 0.0
13:54 19.0 14.3 74 1031.9 12.1 N 13.0 0.0 0.0
13:55 18.9 14.2 74 1032.0 13.0 NW 13.0 0.0 0.0
13:56 18.8 13.9 73 1031.9 10.7 NW 13.0 0.0 0.0
13:57 18.8 13.9 73 1031.9 14.5 N 14.5 0.0 0.0
13:59 18.8 14.1 74 1031.9 8.3 NW 14.5 0.0 0.0
14:00 18.8 14.1 74 1031.9 8.3 N 14.5 0.0 0.0
14:01 18.8 14.1 74 1031.8 8.3 N 14.5 0.0 0.0
14:02 18.8 14.1 74 1031.9 8.3 N 14.5 0.0 0.0
14:03 18.8 14.1 74 1031.9 8.3 N 14.5 0.0 0.0
14:04 18.8 14.1 74 1032.1 8.3 N 14.5 0.0 0.0
14:05 18.9 14.2 74 1031.9 12.1 NW 14.5 0.0 0.0
14:06 18.9 14.2 74 1031.9 12.1 NW 14.5 0.0 0.0
14:07 18.8 13.9 73 1032.1 11.4 NW 14.5 0.0 0.0
14:08 18.7 13.8 73 1031.9 11.4 W 12.1 0.0 0.0
14:09 18.7 13.8 73 1031.8 9.2 NW 12.1 0.0 0.0
14:10 18.7 14.0 74 1031.8 9.8 W 12.1 0.0 0.0
14:11 18.8 14.1 74 1031.9 10.7 NW 12.1 0.0 0.0
14:12 18.8 14.1 74 1031.9 9.2 NW 12.1 0.0 0.0
14:13 18.8 14.1 74 1031.8 9.2 N 12.1 0.0 0.0
14:15 18.9 14.2 74 1031.9 9.8 W 15.2 0.0 0.0
14:16 19.0 14.3 74 1032.0 9.2 N 15.2 0.0 0.0
14:17 19.0 14.3 74 1031.9 9.8 N 15.2 0.0 0.0
14:18 19.0 14.3 74 1032.0 12.1 W 15.2 0.0 0.0
14:19 19.0 14.1 73 1031.9 11.4 W 15.2 0.0 0.0
14:20 19.0 14.1 73 1031.8 11.4 NW 15.2 0.0 0.0
14:21 19.0 14.1 73 1031.8 6.9 E 15.2 0.0 0.0
14:22 19.0 14.1 73 1031.7 9.8 N 15.2 0.0 0.0
14:23 19.0 14.1 73 1031.8 6.0 N 15.2 0.0 0.0
14:24 19.0 14.1 73 1031.7 6.0 NW 15.2 0.0 0.0
14:25 19.0 14.1 73 1032.0 9.8 W 12.1 0.0 0.0
14:26 19.0 14.1 73 1031.8 9.2 W 12.1 0.0 0.0
14:27 19.0 14.1 73 1031.8 8.3 NW 12.1 0.0 0.0
14:28 19.2 14.5 74 1031.7 13.0 NW 13.0 0.0 0.0
14:29 19.2 14.5 74 1031.9 13.0 NE 13.0 0.0 0.0
14:30 19.3 14.4 73 1031.7 9.8 N 13.0 0.0 0.0
14:32 19.4 14.2 72 1031.6 9.2 NW 14.5 0.0 0.0
14:33 19.4 14.2 72 1031.8 9.2 NW 14.5 0.0 0.0
14:34 19.5 14.3 72 1031.6 6.9 W 14.5 0.0 0.0
14:35 19.5 14.5 73 1031.6 10.7 NW 14.5 0.0 0.0
14:36 19.8 14.8 73 1031.8 7.6 W 14.5 0.0 0.0
14:37 19.9 14.9 73 1031.8 7.6 NW 14.5 0.0 0.0
14:38 19.9 14.9 73 1031.8 7.6 NW 14.5 0.0 0.0
14:39 20.1 14.9 72 1031.5 9.8 NW 14.5 0.0 0.0
14:40 20.1 14.9 72 1031.4 13.0 NW 14.5 0.0 0.0
14:41 20.1 14.7 71 1031.5 13.0 W 14.5 0.0 0.0
14:42 20.1 14.5 70 1031.8 7.6 NW 13.0 0.0 0.0
14:43 20.1 14.5 70 1031.5 12.1 N 13.0 0.0 0.0
14:44 20.1 14.5 70 1031.3 8.3 S 13.0 0.0 0.0
14:45 20.1 14.5 70 1031.5 5.4 NW 13.0 0.0 0.0
14:46 20.1 14.2 69 1031.6 9.2 E 13.0 0.0 0.0
14:47 20.1 14.5 70 1031.7 10.7 NW 13.0 0.0 0.0
14:49 20.0 14.2 69 1031.5 9.2 NE 13.0 0.0 0.0
14:50 20.0 14.4 70 1031.7 9.2 NW 13.0 0.0 0.0
14:51 20.0 14.4 70 1031.6 10.7 NW 12.1 0.0 0.0
14:52 19.9 13.8 68 1031.4 11.4 W 17.4 0.0 0.0
14:53 19.9 13.8 68 1031.5 13.0 NW 17.4 0.0 0.0
14:54 19.8 13.5 67 1031.6 13.0 W 17.4 0.0 0.0
14:55 19.8 13.5 67 1031.6 13.0 WNW 17.4 0.0 0.0
14:56 19.7 13.9 69 1031.5 7.6 N 17.4 0.0 0.0
14:57 19.7 13.9 69 1031.5 7.6 N 17.4 0.0 0.0
14:58 19.8 14.2 70 1031.5 10.7 N 17.4 0.0 0.0
14:59 19.9 14.3 70 1031.7 8.3 NW 17.4 0.0 0.0
15:00 20.0 14.4 70 1031.6 8.3 N 17.4 0.0 0.0
15:01 20.0 14.4 70 1031.5 8.3 N 17.4 0.0 0.0
15:02 20.0 14.4 70 1031.8 8.3 N 17.4 0.0 0.0
15:03 20.0 14.4 70 1031.8 8.3 N 13.0 0.0 0.0
15:04 20.0 14.4 70 1031.4 8.3 N 13.0 0.0 0.0
15:05 20.0 14.4 70 1031.5 8.3 N 13.0 0.0 0.0
15:06 19.7 14.1 70 1031.6 12.1 E 12.1 0.0 0.0
15:08 19.5 14.1 71 1031.8 9.2 N 12.1 0.0 0.0
15:09 19.4 14.2 72 1031.6 9.8 W 12.1 0.0 0.0
15:10 19.4 14.2 72 1031.7 9.2 NW 12.1 0.0 0.0
15:11 19.4 14.2 72 1031.6 9.2 N 12.1 0.0 0.0
15:12 19.4 14.2 72 1031.7 13.0 SE 13.0 0.0 0.0
15:13 19.3 14.1 72 1031.8 9.8 N 13.0 0.0 0.0
15:14 19.3 14.1 72 1031.8 9.8 N 13.0 0.0 0.0
15:15 19.3 13.9 71 1031.6 11.4 W 13.0 0.0 0.0
15:16 19.2 13.8 71 1031.8 9.2 NW 13.0 0.0 0.0
15:17 19.2 14.0 72 1031.8 10.7 NW 13.0 0.0 0.0
15:18 19.2 13.8 71 1031.6 9.2 N 13.0 0.0 0.0
15:19 19.2 13.8 71 1031.6 8.3 NW 13.0 0.0 0.0
15:20 19.2 13.8 71 1031.4 12.1 W 13.0 0.0 0.0
15:21 19.2 14.0 72 1031.3 9.8 NW 13.0 0.0 0.0
15:22 19.2 14.0 72 1031.4 11.4 N 13.0 0.0 0.0
15:23 19.2 14.0 72 1031.5 11.4 N 13.0 0.0 0.0
15:24 19.2 14.0 72 1031.6 9.2 NE 13.0 0.0 0.0
15:25 19.2 14.0 72 1031.4 11.4 W 12.1 0.0 0.0
15:26 19.1 13.9 72 1031.5 11.4 NW 12.1 0.0 0.0
15:27 19.1 13.9 72 1031.5 9.8 NW 12.1 0.0 0.0
15:28 19.1 13.9 72 1031.4 10.7 NE 12.1 0.0 0.0
15:29 19.1 13.9 72 1031.8 6.9 E 12.1 0.0 0.0
15:30 19.2 14.3 73 1031.7 9.2 W 12.1 0.0 0.0
15:31 19.2 14.3 73 1031.6 9.2 NNW 11.4 0.0 0.0
15:32 19.2 14.3 73 1031.5 8.3 NW 11.4 0.0 0.0
15:34 19.1 13.9 72 1031.4 8.3 W 11.4 0.0 0.0
15:35 19.1 13.9 72 1031.5 7.6 N 11.4 0.0 0.0
15:36 19.1 13.9 72 1031.3 9.2 N 10.7 0.0 0.0
15:37 19.1 13.9 72 1031.4 11.4 SE 11.4 0.0 0.0
15:38 19.1 13.9 72 1031.4 11.4 N 11.4 0.0 0.0
15:39 19.1 13.9 72 1031.3 11.4 W 11.4 0.0 0.0
15:40 19.2 14.0 72 1031.3 9.2 N 11.4 0.0 0.0
15:41 19.2 14.3 73 1031.4 7.6 NW 11.4 0.0 0.0
15:42 19.2 14.3 73 1031.4 7.6 NW 11.4 0.0 0.0
15:43 19.3 14.1 72 1031.5 7.6 NW 11.4 0.0 0.0
15:44 19.3 14.1 72 1031.3 10.7 NW 11.4 0.0 0.0
15:45 19.3 14.1 72 1031.4 10.7 NW 11.4 0.0 0.0
15:46 19.3 14.1 72 1031.4 11.4 NW 11.4 0.0 0.0
15:47 19.4 14.2 72 1031.4 10.7 W 11.4 0.0 0.0
15:48 19.4 14.2 72 1031.3 12.1 NW 12.1 0.0 0.0
15:49 19.4 14.2 72 1031.3 11.4 NW 12.1 0.0 0.0
15:50 19.4 14.2 72 1031.3 9.2 E 12.1 0.0 0.0
15:51 19.4 14.2 72 1031.1 8.3 SW 12.1 0.0 0.0
15:53 19.5 14.3 72 1031.1 12.1 N 12.1 0.0 0.0
15:54 19.5 14.3 72 1031.3 7.6 NE 12.1 0.0 0.0
15:55 19.5 14.3 72 1031.1 9.8 SW 12.1 0.0 0.0
15:56 19.3 13.9 71 1031.2 13.0 N 13.0 0.0 0.0
15:57 19.3 13.9 71 1031.1 14.5 W 14.5 0.0 0.0
15:58 19.3 13.9 71 1031.1 14.5 W 14.5 0.0 0.0
15:59 19.2 13.8 71 1031.1 9.2 NW 14.5 0.0 0.0
16:00 19.2 13.8 71 1031.1 13.0 N 14.5 0.0 0.0
16:01 19.2 13.8 71 1031.2 13.0 N 14.5 0.0 0.0
16:02 19.2 13.8 71 1031.0 13.0 N 14.5 0.0 0.0
16:03 19.0 13.4 70 1031.1 14.5 NW 14.5 0.0 0.0
16:04 19.0 13.4 70 1031.1 14.5 W 14.5 0.0 0.0
16:05 18.9 13.5 71 1031.2 12.1 NW 14.5 0.0 0.0
16:07 18.9 13.5 71 1031.2 9.8 SE 14.5 0.0 0.0
16:08 18.9 13.5 71 1031.2 10.7 W 14.5 0.0 0.0
16:09 18.9 13.5 71 1031.2 12.1 NE 14.5 0.0 0.0
16:10 18.9 13.5 71 1031.1 8.3 NW 14.5 0.0 0.0
16:11 18.9 13.5 71 1031.1 11.4 W 14.5 0.0 0.0
16:12 18.9 13.5 71 1031.2 12.1 W 14.5 0.0 0.0
16:13 18.8 13.4 71 1031.2 11.4 N 14.5 0.0 0.0
16:14 18.8 13.4 71 1031.4 12.1 S 13.6 0.0 0.0
16:15 18.7 13.3 71 1031.2 12.1 SW 13.6 0.0 0.0
16:16 18.8 13.7 72 1031.1 9.8 W 13.6 0.0 0.0
16:17 18.8 13.7 72 1031.2 13.0 SE 13.6 0.0 0.0
16:18 18.8 13.7 72 1031.1 10.7 N 13.6 0.0 0.0
16:19 18.9 13.8 72 1031.0 9.8 NW 13.6 0.0 0.0
16:20 19.0 13.8 72 1031.0 9.8 NE 13.6 0.0 0.0
16:21 19.0 13.6 71 1031.1 9.2 NW 13.6 0.0 0.0
16:22 19.1 13.7 71 1030.9 7.6 NE 13.6 0.0 0.0
16:23 19.2 13.8 71 1030.9 12.1 NE 13.0 0.0 0.0
16:24 19.2 13.8 71 1031.0 12.1 N 13.0 0.0 0.0
16:26 19.4 14.0 71 1030.9 7.6 NW 13.0 0.0 0.0
16:27 19.5 14.1 71 1030.9 8.3 NW 12.1 0.0 0.0
16:28 19.7 14.5 72 1030.9 10.7 N 12.1 0.0 0.0
16:29 19.8 14.4 71 1030.8 15.9 SW 15.9 0.0 0.0
16:30 19.9 14.5 71 1030.7 15.9 NW 15.9 0.0 0.0
16:31 19.9 14.3 70 1030.8 8.3 NW 15.9 0.0 0.0
16:32 20.0 14.4 70 1030.9 10.7 NE 15.9 0.0 0.0
16:33 20.0 14.4 70 1030.8 9.8 W 15.9 0.0 0.0
16:34 20.0 14.2 69 1030.8 13.0 N 15.9 0.0 0.0
16:35 20.0 14.4 70 1030.7 9.8 NW 15.9 0.0 0.0
16:36 20.1 14.2 69 1030.8 13.6 W 15.9 0.0 0.0
16:37 20.0 14.2 69 1030.8 15.2 NW 15.9 0.0 0.0
16:38 20.0 13.9 68 1030.9 13.0 SW 15.9 0.0 0.0
16:39 19.9 13.8 68 1030.8 12.1 W 15.9 0.0 0.0
16:41 19.6 13.3 67 1030.8 14.5 NW 15.2 0.0 0.0
16:42 19.5 13.4 68 1030.8 13.6 WNW 15.2 0.0 0.0
16:43 19.4 13.4 68 1030.9 19.0 NW 19.0 0.0 0.0
16:44 19.2 13.4 69 1030.8 13.0 NW 19.0 0.0 0.0
16:45 19.1 13.3 69 1030.9 13.6 NE 19.0 0.0 0.0
16:46 19.1 13.3 69 1030.9 13.6 NE 19.0 0.0 0.0
16:47 19.0 13.2 69 1030.6 9.2 W 19.0 0.0 0.0
16:48 18.9 13.1 69 1030.6 12.1 N 19.0 0.0 0.0
16:49 18.8 13.2 70 1030.8 8.3 N 19.0 0.0 0.0
16:50 18.8 13.2 70 1030.6 13.0 N 19.0 0.0 0.0
16:51 18.8 13.4 71 1030.6 10.7 NW 19.0 0.0 0.0
16:52 18.8 13.4 71 1030.5 10.7 NW 19.0 0.0 0.0
16:53 18.9 13.8 72 1030.8 10.7 SW 19.0 0.0 0.0
16:54 19.0 13.8 72 1030.7 8.3 N 19.0 0.0 0.0
16:55 19.2 14.3 73 1030.7 16.8 N 16.8 0.0 0.0
16:56 19.2 14.0 72 1030.8 12.1 NW 16.8 0.0 0.0
16:58 19.2 14.0 72 1030.7 13.0 NW 16.8 0.0 0.0
16:59 19.2 13.8 71 1030.7 11.4 N 16.8 0.0 0.0
17:00 19.2 13.8 71 1030.7 11.4 NW 16.8 0.0 0.0
17:01 19.2 13.8 71 1030.8 11.4 NW 16.8 0.0 0.0
17:02 19.2 13.8 71 1030.7 11.4 NW 16.8 0.0 0.0
17:03 18.9 13.5 71 1030.6 14.5 NW 16.8 0.0 0.0
17:04 18.9 13.8 72 1030.8 8.3 N 16.8 0.0 0.0
17:05 18.9 13.8 72 1030.8 8.3 N 16.8 0.0 0.0
17:06 18.9 13.8 72 1030.6 11.4 W 16.8 0.0 0.0
17:07 18.9 13.8 72 1030.8 9.8 NW 14.5 0.0 0.0
17:08 18.9 13.8 72 1030.6 9.8 NW 14.5 0.0 0.0
17:09 18.9 13.8 72 1030.7 13.0 NW 14.5 0.0 0.0
17:10 18.9 13.8 72 1030.4 13.0 W 14.5 0.0 0.0
17:11 19.0 14.1 73 1030.4 11.4 W 14.5 0.0 0.0
17:12 19.0 14.1 73 1030.5 11.4 W 14.5 0.0 0.0
17:13 19.1 14.2 73 1030.7 13.0 NW 14.5 0.0 0.0
17:14 19.2 14.0 72 1030.6 8.3 NW 13.6 0.0 0.0
17:15 19.3 14.4 73 1030.6 10.7 N 13.0 0.0 0.0
17:17 19.4 14.4 73 1030.4 12.1 NW 13.0 0.0 0.0
17:18 19.4 14.2 72 1030.7 6.9 E 13.0 0.0 0.0
17:19 19.4 14.2 72 1030.5 9.8 NW 13.0 0.0 0.0
17:20 19.3 14.1 72 1030.5 11.4 NW 13.0 0.0 0.0
17:21 19.3 14.1 72 1030.5 11.4 W 13.0 0.0 0.0
17:22 19.3 14.1 72 1030.4 6.9 NW 13.0 0.0 0.0
17:23 19.4 14.2 72 1030.3 8.3 W 12.1 0.0 0.0
17:24 19.5 14.3 72 1030.5 9.2 N 12.1 0.0 0.0
17:25 19.5 14.3 72 1030.7 9.2 N 12.1 0.0 0.0
17:26 19.6 14.4 72 1030.5 10.7 WNW 12.1 0.0 0.0
17:27 19.6 14.2 71 1030.4 13.0 NE 13.0 0.0 0.0
17:29 19.4 14.0 71 1030.7 13.0 N 13.0 0.0 0.0
17:30 19.4 14.0 71 1030.4 6.0 NW 13.0 0.0 0.0
17:31 19.4 14.0 71 1030.5 6.9 N 13.0 0.0 0.0
17:32 19.3 13.9 71 1030.5 13.6 N 13.6 0.0 0.0
17:33 19.2 13.8 71 1030.3 14.5 N 14.5 0.0 0.0
17:34 19.2 13.8 71 1030.3 14.5 N 14.5 0.0 0.0
17:35 19.1 13.7 71 1030.6 9.8 NW 14.5 0.0 0.0
17:36 19.1 13.9 72 1030.6 6.9 NE 14.5 0.0 0.0
17:37 19.2 14.0 72 1030.4 11.4 NW 14.5 0.0 0.0
17:38 19.3 14.1 72 1030.5 13.6 W 14.5 0.0 0.0
17:39 19.3 14.1 72 1030.5 9.8 NE 14.5 0.0 0.0
17:40 19.3 14.1 72 1030.3 9.2 N 14.5 0.0 0.0
17:41 19.4 14.2 72 1030.4 8.3 W 14.5 0.0 0.0
17:42 19.4 14.4 73 1030.5 8.3 S 14.5 0.0 0.0
17:43 19.5 14.5 73 1030.5 6.9 NW 14.5 0.0 0.0
17:45 19.4 14.0 71 1030.5 9.8 NW 13.6 0.0 0.0
17:46 19.3 13.9 71 1030.3 10.7 W 13.6 0.0 0.0
17:47 19.3 14.1 72 1030.3 10.7 NW 13.6 0.0 0.0
17:48 19.3 13.9 71 1030.6 9.2 NW 11.4 0.0 0.0
17:49 19.3 14.1 72 1030.6 8.3 NE 11.4 0.0 0.0
17:50 19.3 14.1 72 1030.7 7.6 N 11.4 0.0 0.0
17:51 19.3 14.1 72 1030.6 11.4 SW 11.4 0.0 0.0
17:52 19.3 14.1 72 1030.6 11.4 NW 11.4 0.0 0.0
17:53 19.4 14.2 72 1030.5 9.2 N 11.4 0.0 0.0
17:54 19.4 14.2 72 1030.5 9.2 N 11.4 0.0 0.0
17:55 19.4 14.2 72 1030.6 6.0 N 11.4 0.0 0.0
17:56 19.4 14.2 72 1030.6 13.6 N 13.6 0.0 0.0
17:57 19.3 14.1 72 1030.5 15.2 NW 15.2 0.0 0.0
17:58 19.3 13.9 71 1030.6 10.7 NW 15.2 0.0 0.0
17:59 19.2 13.8 71 1030.6 12.1 NW 15.2 0.0 0.0
18:00 19.1 13.7 71 1030.3 7.6 W 15.2 0.0 0.0
18:01 19.1 13.7 71 1030.4 7.6 W 15.2 0.0 0.0
18:02 19.1 13.7 71 1030.5 7.6 W 15.2 0.0 0.0
18:03 19.2 14.0 72 1030.5 15.9 N 15.9 0.0 0.0
18:04 19.3 14.1 72 1030.5 8.3 NW 15.9 0.0 0.0
18:05 19.4 14.2 72 1030.3 11.4 NW 15.9 0.0 0.0
18:06 19.3 14.1 72 1030.5 12.1 NE 15.9 0.0 0.0
18:07 19.4 14.2 72 1030.3 9.2 N 15.9 0.0 0.0
18:08 19.4 14.2 72 1030.5 9.8 SW 15.9 0.0 0.0
18:09 19.5 14.3 72 1030.6 11.4 NW 15.9 0.0 0.0
18:10 19.5 14.3 72 1030.5 12.1 W 15.9 0.0 0.0
18:11 19.5 14.3 72 1030.5 9.2 N 15.9 0.0 0.0
18:12 19.5 14.3 72 1030.4 17.4 N 17.4 0.0 0.0
18:13 19.5 14.3 72 1030.5 15.2 N 17.4 0.0 0.0
18:14 19.5 14.1 71 1030.4 12.1 N 17.4 0.0 0.0
18:15 19.5 14.1 71 1030.4 10.7 NW 17.4 0.0 0.0
18:17 19.4 14.0 71 1030.4 17.4 N 17.4 0.0 0.0
18:18 19.4 14.0 71 1030.5 9.2 NW 17.4 0.0 0.0
18:19 19.4 14.0 71 1030.2 9.8 W 17.4 0.0 0.0
18:20 19.3 13.9 71 1030.5 13.0 NE 17.4 0.0 0.0
18:21 19.3 13.9 71 1030.2 12.1 NW 17.4 0.0 0.0
18:22 19.3 13.9 71 1030.4 11.4 NW 17.4 0.0 0.0
18:23 19.2 13.8 71 1030.3 8.3 W 17.4 0.0 0.0
18:24 19.2 13.8 71 1030.4 10.7 SE 17.4 0.0 0.0
18:25 19.2 13.8 71 1030.4 10.7 SE 17.4 0.0 0.0
18:26 19.2 13.8 71 1030.4 11.4 W 17.4 0.0 0.0
18:27 19.2 13.8 71 1030.2 13.6 N 17.4 0.0 0.0
18:28 19.2 13.8 71 1030.1 9.2 N 13.6 0.0 0.0
18:29 19.2 13.8 71 1030.2 9.2 N 13.6 0.0 0.0
18:30 19.2 13.8 71 1030.2 12.1 NW 13.6 0.0 0.0
18:31 19.2 13.8 71 1030.3 12.1 NW 13.6 0.0 0.0
18:32 19.1 13.7 71 1030.4 9.8 N 13.6 0.0 0.0
18:33 19.0 13.6 71 1030.4 9.2 E 13.6 0.0 0.0
18:34 19.0 13.6 71 1030.3 13.0 NW 13.6 0.0 0.0
18:36 19.0 13.8 72 1030.2 8.3 W 18.3 0.0 0.0
18:37 19.0 13.6 71 1030.4 12.1 W 18.3 0.0 0.0
18:38 19.0 13.6 71 1030.2 10.7 NE 18.3 0.0 0.0
18:39 19.0 13.6 71 1030.2 8.3 N 18.3 0.0 0.0
18:40 19.0 13.8 72 1030.2 13.6 N 18.3 0.0 0.0
18:41 19.0 13.8 72 1030.4 9.2 W 18.3 0.0 0.0
18:42 19.1 13.9 72 1030.1 9.8 N 18.3 0.0 0.0
18:43 19.1 13.9 72 1030.3 9.8 W 18.3 0.0 0.0
18:44 19.1 13.9 72 1030.3 10.7 NW 18.3 0.0 0.0
18:45 19.2 14.0 72 1030.6 10.7 N 18.3 0.0 0.0
18:46 19.2 14.0 72 1030.4 15.2 E 15.2 0.0 0.0
18:47 19.2 14.0 72 1030.2 12.1 W 15.2 0.0 0.0
18:48 19.2 14.0 72 1030.3 7.6 NW 15.2 0.0 0.0
18:49 19.2 14.0 72 1030.3 8.3 NW 15.2 0.0 0.0
18:50 19.1 13.9 72 1030.2 18.3 NW 18.3 0.0 0.0
18:51 19.1 13.9 72 1030.5 15.2 N 18.3 0.0 0.0
18:52 19.1 13.9 72 1030.3 15.2 W 18.3 0.0 0.0
18:53 19.1 13.9 72 1030.4 11.4 NW 18.3 0.0 0.0
18:55 19.0 13.8 72 1030.5 8.3 W 18.3 0.0 0.0
18:56 19.1 14.2 73 1030.4 6.0 N 18.3 0.0 0.0
18:57 19.2 14.3 73 1030.3 9.8 NW 18.3 0.0 0.0
18:58 19.2 14.3 73 1030.2 6.9 WNW 18.3 0.0 0.0
18:59 19.2 14.3 73 1030.4 9.8 WNW 18.3 0.0 0.0
19:00 19.2 14.3 73 1030.4 8.3 W 15.2 0.0 0.0
19:01 19.2 14.3 73 1030.4 8.3 W 15.2 0.0 0.0
19:02 19.2 14.3 73 1030.4 8.3 W 13.6 0.0 0.0
19:03 19.0 13.8 72 1030.4 13.0 N 13.6 0.0 0.0
19:04 19.0 13.8 72 1030.2 12.1 NW 13.6 0.0 0.0
19:05 19.0 13.8 72 1030.4 9.2 NW 13.0 0.0 0.0
19:06 19.0 14.1 73 1030.2 13.0 NW 13.0 0.0 0.0
19:07 18.9 14.0 73 1030.2 13.6 N 13.6 0.0 0.0
19:08 18.9 14.0 73 1030.3 10.7 NW 13.6 0.0 0.0
19:09 18.9 14.0 73 1030.3 7.6 NW 13.6 0.0 0.0
19:10 18.8 14.1 74 1030.2 14.5 NW 14.5 0.0 0.0
19:12 18.8 14.1 74 1030.5 10.7 W 14.5 0.0 0.0
19:13 18.8 14.1 74 1030.4 10.7 N 14.5 0.0 0.0
19:14 18.8 14.1 74 1030.3 9.2 NW 14.5 0.0 0.0
19:15 18.8 14.3 75 1030.3 8.3 NW 14.5 0.0 0.0
19:16 18.8 14.3 75 1030.3 9.8 NW 14.5 0.0 0.0
19:17 18.8 14.3 75 1030.4 10.7 NW 14.5 0.0 0.0
19:18 18.7 14.2 75 1030.2 11.4 NW 14.5 0.0 0.0
19:20 18.7 14.2 75 1030.2 10.7 N 13.0 0.0 0.0
19:21 18.6 14.1 75 1030.4 10.7 N 13.0 0.0 0.0
19:22 18.6 14.1 75 1030.1 12.1 NW 13.0 0.0 0.0
19:23 18.6 14.1 75 1030.3 16.8 N 16.8 0.0 0.0
19:24 18.5 14.0 75 1030.1 13.6 NW 16.8 0.0 0.0
19:25 18.5 14.0 75 1030.5 15.2 W 16.8 0.0 0.0
19:26 18.4 13.9 75 1030.3 11.4 W 16.8 0.0 0.0
19:27 18.4 13.9 75 1030.3 13.0 N 16.8 0.0 0.0
19:29 18.3 14.0 76 1030.2 15.2 NW 16.8 0.0 0.0
19:30 18.3 14.0 76 1030.2 15.2 W 16.8 0.0 0.0
19:31 18.3 14.2 77 1030.5 13.0 NW 16.8 0.0 0.0
19:32 18.2 14.1 77 1030.5 12.1 N 16.8 0.0 0.0
19:33 18.2 14.1 77 1030.5 9.8 SW 15.2 0.0 0.0
19:34 18.2 14.1 77 1030.3 6.9 NW 15.2 0.0 0.0
19:35 18.2 14.3 78 1030.5 6.9 NW 15.2 0.0 0.0
19:36 18.2 14.3 78 1030.4 13.0 N 15.2 0.0 0.0
19:37 18.2 14.3 78 1030.3 13.0 N 15.2 0.0 0.0
19:38 18.1 14.2 78 1030.5 12.1 W 15.2 0.0 0.0
19:39 18.1 14.2 78 1030.5 14.5 NW 15.2 0.0 0.0
19:40 18.0 14.1 78 1030.5 11.4 NW 15.2 0.0 0.0
19:41 18.0 14.1 78 1030.4 11.4 NW 14.5 0.0 0.0
19:42 18.0 14.3 79 1030.4 5.4 N 14.5 0.0 0.0
19:43 18.0 14.3 79 1030.4 9.8 W 14.5 0.0 0.0
19:44 18.0 14.3 79 1030.4 9.8 N 14.5 0.0 0.0
19:45 18.0 14.3 79 1030.4 10.7 NW 14.5 0.0 0.0
19:47 18.0 14.3 79 1030.3 12.1 NW 14.5 0.0 0.0
19:48 17.9 14.2 79 1030.6 12.1 NW 14.5 0.0 0.0
19:49 17.9 14.2 79 1030.3 12.1 NW 13.0 0.0 0.0
19:50 17.9 14.2 79 1030.5 9.8 W 13.0 0.0 0.0
19:51 17.9 14.2 79 1030.6 12.1 NW 13.0 0.0 0.0
19:52 17.8 14.1 79 1030.3 9.2 W 13.0 0.0 0.0
19:53 17.8 14.1 79 1030.3 12.1 NW 13.0 0.0 0.0
19:54 17.8 14.1 79 1030.5 12.1 NW 13.0 0.0 0.0
19:55 17.8 14.1 79 1030.3 13.0 W 13.0 0.0 0.0
19:56 17.8 14.1 79 1030.4 13.0 NW 13.0 0.0 0.0
19:57 17.8 14.1 79 1030.4 11.4 NE 13.0 0.0 0.0
19:58 17.7 14.0 79 1030.5 11.4 NE 13.0 0.0 0.0
19:59 17.7 14.0 79 1030.3 11.4 NW 13.0 0.0 0.0
20:00 17.7 14.2 80 1030.3 12.1 NW 13.0 0.0 0.0
20:01 17.7 14.2 80 1030.3 12.1 NW 13.0 0.0 0.0
20:03 17.7 14.2 80 1030.4 12.1 NW 13.0 0.0 0.0
20:04 17.7 14.2 80 1030.3 12.1 NW 13.0 0.0 0.0
20:05 17.6 14.1 80 1030.1 13.6 NW 13.6 0.0 0.0
20:06 17.5 14.0 80 1030.3 10.7 NW 13.6 0.0 0.0
20:07 17.5 14.0 80 1030.3 12.1 NW 13.6 0.0 0.0
20:08 17.4 14.3 82 1030.4 11.4 NW 13.6 0.0 0.0
20:09 17.4 14.3 82 1030.2 9.2 NW 13.6 0.0 0.0
20:10 17.4 14.3 82 1030.3 5.4 N 13.6 0.0 0.0
20:11 17.3 14.2 82 1030.2 9.2 W 13.6 0.0 0.0
20:12 17.3 14.4 83 1030.2 12.1 NW 13.6 0.0 0.0
20:13 17.3 14.4 83 1030.4 12.1 NW 13.6 0.0 0.0
20:14 17.3 14.4 83 1030.2 9.2 NW 13.6 0.0 0.0
20:15 17.2 14.3 83 1030.7 11.4 NW 13.6 0.0 0.0
20:16 17.2 14.3 83 1030.4 6.9 W 12.1 0.0 0.0
20:17 17.1 14.2 83 1030.6 12.1 W 12.1 0.0 0.0
20:18 17.1 14.2 83 1030.3 9.8 N 12.1 0.0 0.0
20:19 17.1 14.2 83 1030.4 11.4 N 12.1 0.0 0.0
20:20 17.0 14.1 83 1030.5 11.4 NW 12.1 0.0 0.0
20:22 16.9 14.0 83 1030.5 7.6 NW 12.1 0.0 0.0
20:23 16.9 14.2 84 1030.4 10.7 N 12.1 0.0 0.0
20:24 16.8 14.1 84 1030.6 10.7 NW 12.1 0.0 0.0
20:25 16.8 14.1 84 1030.5 7.6 W 12.1 0.0 0.0
20:26 16.8 14.1 84 1030.4 7.6 N 12.1 0.0 0.0
20:27 16.7 14.0 84 1030.5 9.8 NW 11.4 0.0 0.0
20:28 16.6 13.9 84 1030.4 10.7 N 11.4 0.0 0.0
20:29 16.6 13.9 84 1030.5 6.9 W 11.4 0.0 0.0
20:30 16.6 13.9 84 1030.5 6.9 W 11.4 0.0 0.0
20:31 16.6 13.9 84 1030.4 13.0 NE 13.0 0.0 0.0
20:32 16.5 13.8 84 1030.4 10.7 NW 13.0 0.0 0.0
20:33 16.5 13.8 84 1030.4 9.8 W 13.0 0.0 0.0
20:34 16.5 14.0 85 1030.3 8.3 W 13.0 0.0 0.0
20:35 16.5 14.0 85 1030.4 10.7 SW 13.0 0.0 0.0
20:36 16.5 14.0 85 1030.4 10.7 W 13.0 0.0 0.0
20:37 16.5 14.0 85 1030.6 10.7 W 13.0 0.0 0.0
20:38 16.5 14.0 85 1030.5 10.7 W 13.0 0.0 0.0
20:39 16.5 14.0 85 1030.6 10.7 W 13.0 0.0 0.0
20:41 16.3 14.0 86 1030.5 10.7 NW 13.0 0.0 0.0
20:42 16.3 14.0 86 1030.4 10.7 NW 10.7 0.0 0.0
20:43 16.3 14.0 86 1030.3 8.3 N 10.7 0.0 0.0
20:44 16.3 14.0 86 1030.5 7.6 N 10.7 0.0 0.0
20:45 16.3 14.0 86 1030.3 7.6 N 10.7 0.0 0.0
20:46 16.3 14.0 86 1030.3 4.5 NW 10.7 0.0 0.0
20:47 16.3 14.0 86 1030.4 6.9 N 10.7 0.0 0.0
20:48 16.3 14.1 87 1030.5 6.0 NW 10.7 0.0 0.0
20:49 16.3 14.1 87 1030.5 6.0 NW 10.7 0.0 0.0
20:50 16.3 14.1 87 1030.5 7.6 NW 10.7 0.0 0.0
20:51 16.3 14.1 87 1030.4 7.6 NW 10.7 0.0 0.0
20:52 16.3 14.1 87 1030.5 6.9 W 10.7 0.0 0.0
20:53 16.3 14.1 87 1030.3 8.3 NW 9.2 0.0 0.0
20:54 16.3 14.1 87 1030.4 8.3 W 9.2 0.0 0.0
20:55 16.3 14.1 87 1030.5 8.3 W 9.2 0.0 0.0
20:56 16.3 14.1 87 1030.4 8.3 W 9.2 0.0 0.0
20:57 16.3 14.1 87 1030.4 9.2 N 9.2 0.0 0.0
20:58 16.3 14.1 87 1030.3 9.2 N 9.2 0.0 0.0
21:00 16.3 14.3 88 1030.3 8.3 W 9.2 0.0 0.0
21:01 16.3 14.3 88 1030.2 8.3 W 9.2 0.0 0.0
21:02 16.3 14.3 88 1030.4 8.3 W 9.2 0.0 0.0
21:03 16.3 14.3 88 1030.1 8.3 W 9.2 0.0 0.0
21:04 16.3 14.3 88 1030.2 8.3 W 9.2 0.0 0.0
21:05 16.3 14.3 88 1030.2 8.3 W 9.2 0.0 0.0
21:06 16.3 14.3 88 1030.3 8.3 W 9.2 0.0 0.0
21:07 16.3 14.3 88 1030.1 8.3 W 9.2 0.0 0.0
21:08 16.3 14.5 89 1030.4 3.1 NW 8.3 0.0 0.0
21:09 16.3 14.5 89 1030.3 8.3 NW 8.3 0.0 0.0
21:10 16.3 14.5 89 1030.2 9.2 W 9.2 0.0 0.0
21:11 16.3 14.5 89 1030.3 9.2 W 9.2 0.0 0.0
21:12 16.3 14.5 89 1030.3 9.2 W 9.2 0.0 0.0
21:13 16.3 14.5 89 1030.5 3.8 NW 9.2 0.0 0.0
21:14 16.3 14.5 89 1030.4 3.8 NW 9.2 0.0 0.0
21:15 16.3 14.5 89 1030.4 3.8 NW 9.2 0.0 0.0
21:16 16.3 14.5 89 1030.4 9.8 N 9.8 0.0 0.0
21:17 16.3 14.5 89 1030.5 9.8 N 9.8 0.0 0.0
21:18 16.3 14.5 89 1030.5 9.8 N 9.8 0.0 0.0
21:20 16.4 14.6 89 1030.4 7.6 SW 9.8 0.0 0.0
21:21 16.4 14.6 89 1030.3 4.5 W 9.8 0.0 0.0
21:22 16.4 14.6 89 1030.3 4.5 W 9.8 0.0 0.0
21:23 16.4 14.6 89 1030.4 6.9 N 9.8 0.0 0.0
21:24 16.4 14.6 89 1030.6 12.1 NW 12.1 0.0 0.0
21:25 16.4 14.6 89 1030.4 12.1 NW 12.1 0.0 0.0
21:26 16.4 14.6 89 1030.4 8.3 N 12.1 0.0 0.0
21:27 16.4 14.6 89 1030.3 8.3 N 12.1 0.0 0.0
21:28 16.4 14.6 89 1030.5 8.3 N 12.1 0.0 0.0
21:29 16.5 14.9 90 1030.4 8.3 NW 12.1 0.0 0.0
21:31 16.5 14.9 90 1030.3 9.8 NW 12.1 0.0 0.0
21:32 16.5 14.9 90 1030.4 9.8 NW 12.1 0.0 0.0
21:33 16.5 14.9 90 1030.4 8.3 W 12.1 0.0 0.0
21:34 16.5 14.9 90 1030.5 8.3 W 12.1 0.0 0.0
21:35 16.5 14.9 90 1030.5 13.0 NW 13.0 0.0 0.0
21:36 16.5 14.9 90 1030.5 12.1 N 13.0 0.0 0.0
21:37 16.5 14.9 90 1030.4 10.7 NW 13.0 0.0 0.0
21:38 16.5 14.9 90 1030.4 10.7 NW 13.0 0.0 0.0
21:39 16.5 14.9 90 1030.6 10.7 NW 13.0 0.0 0.0
21:40 16.5 14.9 90 1030.4 10.7 NW 13.0 0.0 0.0
21:41 16.5 14.9 90 1030.5 10.7 NW 13.0 0.0 0.0
21:42 16.5 14.9 90 1030.4 9.8 W 13.0 0.0 0.0
21:43 16.5 14.9 90 1030.6 7.6 NW 13.0 0.0 0.0
21:44 16.5 14.9 90 1030.3 7.6 NW 13.0 0.0 0.0
21:45 16.5 14.9 90 1030.4 11.4 NW 13.0 0.0 0.0
21:46 16.5 14.9 90 1030.4 11.4 NW 13.0 0.0 0.0
21:47 16.5 14.9 90 1030.5 10.7 NW 12.1 0.0 0.0
21:48 16.5 15.0 91 1030.4 8.3 NW 11.4 0.0 0.0
21:50 16.5 15.0 91 1030.7 11.4 W 11.4 0.0 0.0
21:51 16.5 15.0 91 1030.5 11.4 N 11.4 0.0 0.0
21:52 16.5 15.0 91 1030.6 9.2 NW 11.4 0.0 0.0
21:53 16.5 15.0 91 1030.8 9.2 NW 11.4 0.0 0.0
21:54 16.5 15.0 91 1030.7 10.7 NW 11.4 0.0 0.0
21:55 16.5 15.0 91 1030.5 10.7 NW 11.4 0.0 0.0
21:56 16.5 15.0 91 1030.9 8.3 NW 11.4 0.0 0.0
21:57 16.5 15.0 91 1030.9 8.3 NW 11.4 0.0 0.0
21:58 16.5 15.0 91 1030.7 11.4 NW 11.4 0.0 0.0
21:59 16.5 15.0 91 1030.7 11.4 NW 11.4 0.0 0.0
22:00 16.5 15.0 91 1030.8 11.4 NW 11.4 0.0 0.0
22:01 16.5 15.0 91 1030.6 6.9 NW 11.4 0.0 0.0
22:02 16.5 15.0 91 1030.7 6.9 NW 11.4 0.0 0.0
22:03 16.5 15.0 91 1030.6 5.4 W 11.4 0.0 0.0
22:04 16.5 15.0 91 1030.8 7.6 NW 11.4 0.0 0.0
22:05 16.5 15.0 91 1030.7 9.2 ESE 11.4 0.0 0.0
22:06 16.5 15.0 91 1030.8 6.0 NNE 11.4 0.0 0.0
22:08 16.5 15.0 91 1030.7 9.2 NW 11.4 0.0 0.0
22:09 16.5 15.2 92 1030.7 9.2 N 11.4 0.0 0.0
22:10 16.5 15.2 92 1030.8 9.2 N 9.2 0.0 0.0
22:11 16.5 15.2 92 1030.7 9.2 N 9.2 0.0 0.0
22:12 16.5 15.2 92 1031.1 6.9 N 9.2 0.0 0.0
22:13 16.5 15.2 92 1030.7 6.9 N 9.2 0.0 0.0
22:14 16.5 15.2 92 1030.9 6.9 N 9.2 0.0 0.0
22:15 16.5 15.2 92 1030.9 6.9 N 9.2 0.0 0.0
22:16 16.5 15.2 92 1030.6 6.9 NW 9.2 0.0 0.0
22:17 16.5 15.2 92 1030.7 6.9 NW 9.2 0.0 0.0
22:18 16.5 15.2 92 1030.9 6.9 NW 9.2 0.0 0.0
22:19 16.5 15.2 92 1030.8 8.3 NW 9.2 0.0 0.0
22:20 16.5 15.2 92 1030.9 8.3 NW 9.2 0.0 0.0
22:21 16.5 15.2 92 1030.7 6.0 NW 9.2 0.0 0.0
22:22 16.5 15.2 92 1030.9 7.6 NW 8.3 0.0 0.0
22:23 16.5 15.2 92 1030.8 7.6 NW 8.3 0.0 0.0
22:24 16.5 15.2 92 1030.9 7.6 NW 8.3 0.0 0.0
22:25 16.5 15.2 92 1030.8 7.6 NW 8.3 0.0 0.0
22:27 16.5 15.2 92 1030.7 6.9 NW 8.3 0.0 0.0
22:28 16.5 15.2 92 1030.9 7.6 SW 8.3 0.0 0.0
22:29 16.5 15.2 92 1030.9 6.9 W 8.3 0.0 0.0
22:30 16.5 15.2 92 1030.7 6.9 W 7.6 0.0 0.0
22:31 16.5 15.2 92 1030.9 6.0 W 7.6 0.0 0.0
22:32 16.6 15.3 92 1031.1 6.0 NW 7.6 0.0 0.0
22:33 16.6 15.3 92 1030.8 6.0 NW 7.6 0.0 0.0
22:34 16.6 15.3 92 1030.8 7.6 NE 7.6 0.0 0.0
22:35 16.6 15.3 92 1031.0 7.6 NE 7.6 0.0 0.0
22:36 16.6 15.3 92 1031.0 9.8 NW 9.8 0.0 0.0
22:37 16.6 15.3 92 1030.9 9.8 NW 9.8 0.0 0.0
22:38 16.6 15.3 92 1031.0 9.8 NW 9.8 0.0 0.0
22:39 16.6 15.3 92 1030.9 9.8 NW 9.8 0.0 0.0
22:40 16.6 15.3 92 1031.0 9.8 NW 9.8 0.0 0.0
22:41 16.6 15.3 92 1031.0 9.8 NW 9.8 0.0 0.0
22:42 16.6 15.3 92 1031.0 9.8 NW 9.8 0.0 0.0
22:43 16.6 15.5 93 1030.8 6.0 NW 9.8 0.0 0.0
22:44 16.6 15.5 93 1030.9 3.8 NW 9.8 0.0 0.0
22:46 16.6 15.5 93 1030.9 6.0 NW 9.8 0.0 0.0
22:47 16.6 15.5 93 1030.8 9.2 NW 9.8 0.0 0.0
22:48 16.6 15.5 93 1030.7 5.4 W 9.8 0.0 0.0
22:49 16.6 15.5 93 1030.7 5.4 W 9.8 0.0 0.0
22:50 16.5 15.4 93 1030.9 3.8 N 9.8 0.0 0.0
22:51 16.5 15.4 93 1030.8 3.8 N 9.8 0.0 0.0
22:52 16.6 15.5 93 1030.8 8.3 NW 9.2 0.0 0.0
22:53 16.6 15.5 93 1030.8 8.3 N 9.2 0.0 0.0
22:54 16.6 15.5 93 1030.8 8.3 N 9.2 0.0 0.0
22:55 16.6 15.5 93 1030.9 4.5 W 9.2 0.0 0.0
22:56 16.6 15.5 93 1030.8 7.6 NW 9.2 0.0 0.0
22:57 16.6 15.5 93 1031.1 7.6 NW 9.2 0.0 0.0
22:58 16.6 15.5 93 1030.7 6.0 W 8.3 0.0 0.0
22:59 16.6 15.5 93 1031.1 3.8 W 8.3 0.0 0.0
23:00 16.6 15.5 93 1030.8 6.9 NW 8.3 0.0 0.0
23:01 16.6 15.5 93 1030.5 6.9 NW 8.3 0.0 0.0
23:02 16.6 15.5 93 1030.9 6.9 NW 8.3 0.0 0.0
23:03 16.6 15.5 93 1031.2 5.4 NW 8.3 0.0 0.0
23:04 16.6 15.5 93 1031.2 5.4 W 8.3 0.0 0.0
23:05 16.6 15.5 93 1031.0 5.4 W 7.6 0.0 0.0
23:06 16.6 15.5 93 1031.1 5.4 N 7.6 0.0 0.0
23:07 16.6 15.5 93 1030.8 5.4 N 6.9 0.0 0.0
23:08 16.6 15.5 93 1031.0 6.0 NE 6.9 0.0 0.0
23:09 16.6 15.5 93 1030.9 6.0 NW 6.9 0.0 0.0
23:10 16.6 15.5 93 1031.1 6.0 NW 6.9 0.0 0.0
23:11 16.6 15.5 93 1031.1 6.9 WNW 6.9 0.0 0.0
23:12 16.6 15.5 93 1030.9 6.9 WNW 6.9 0.0 0.0
23:13 16.5 15.4 93 1030.9 4.5 W 6.9 0.0 0.0
23:14 16.5 15.4 93 1031.1 6.0 NW 6.9 0.0 0.0
23:15 16.5 15.4 93 1030.9 8.3 SE 8.3 0.0 0.0
23:16 16.5 15.4 93 1030.8 10.7 N 10.7 0.0 0.0
23:17 16.5 15.4 93 1030.9 6.9 SSW 10.7 0.0 0.0
23:18 16.5 15.4 93 1030.9 5.4 NE 10.7 0.0 0.0
23:19 16.5 15.4 93 1031.1 6.0 W 10.7 0.0 0.0
23:20 16.5 15.4 93 1031.0 6.0 W 10.7 0.0 0.0
23:21 16.5 15.4 93 1030.9 5.4 NW 10.7 0.0 0.0
23:22 16.5 15.4 93 1030.8 7.6 N 10.7 0.0 0.0
23:23 16.5 15.4 93 1030.9 5.4 NW 10.7 0.0 0.0
23:24 16.5 15.4 93 1030.8 3.8 NW 10.7 0.0 0.0
23:25 16.5 15.4 93 1030.9 6.9 NW 10.7 0.0 0.0
23:26 16.5 15.4 93 1030.8 6.9 NW 7.6 0.0 0.0
23:27 16.5 15.4 93 1031.2 6.0 W 7.6 0.0 0.0
23:28 16.5 15.4 93 1031.1 6.9 NW 7.6 0.0 0.0
23:29 16.5 15.4 93 1031.1 7.6 NW 7.6 0.0 0.0
23:30 16.5 15.4 93 1031.0 7.6 W 7.6 0.0 0.0
23:31 16.5 15.4 93 1031.0 4.5 NW 7.6 0.0 0.0
23:32 16.5 15.4 93 1031.0 4.5 NW 7.6 0.0 0.0
23:33 16.5 15.4 93 1031.1 4.5 NW 7.6 0.0 0.0
23:34 16.5 15.4 93 1030.9 5.4 N 7.6 0.0 0.0
23:35 16.5 15.4 93 1031.2 6.9 SW 7.6 0.0 0.0
23:36 16.5 15.4 93 1031.0 6.9 NE 7.6 0.0 0.0
23:37 16.5 15.4 93 1031.0 6.9 NW 7.6 0.0 0.0
23:39 16.5 15.4 93 1031.0 3.8 WNW 7.6 0.0 0.0
23:40 16.5 15.4 93 1031.0 6.9 S 6.9 0.0 0.0
23:41 16.5 15.4 93 1030.8 6.0 NW 6.9 0.0 0.0
23:42 16.5 15.4 93 1030.9 6.0 NW 6.9 0.0 0.0
23:43 16.5 15.4 93 1030.9 8.3 NW 8.3 0.0 0.0
23:44 16.5 15.4 93 1030.9 6.0 NW 8.3 0.0 0.0
23:45 16.5 15.4 93 1031.0 7.6 W 8.3 0.0 0.0
23:46 16.5 15.4 93 1030.9 4.5 NW 8.3 0.0 0.0
23:47 16.5 15.4 93 1030.8 6.9 NW 8.3 0.0 0.0
23:48 16.5 15.4 93 1030.9 6.9 N 8.3 0.0 0.0
23:49 16.5 15.4 93 1030.7 6.9 N 8.3 0.0 0.0
23:50 16.5 15.4 93 1030.9 6.9 WNW 8.3 0.0 0.0
23:51 16.5 15.4 93 1030.8 9.8 NW 9.8 0.0 0.0
23:52 16.5 15.4 93 1030.9 7.6 NW 9.8 0.0 0.0
23:53 16.5 15.4 93 1030.8 7.6 NW 9.8 0.0 0.0
23:54 16.5 15.4 93 1030.7 8.3 N 9.8 0.0 0.0
23:55 16.5 15.4 93 1030.8 8.3 N 9.8 0.0 0.0
23:56 16.5 15.4 93 1030.8 8.3 N 9.8 0.0 0.0
23:58 16.5 15.4 93 1030.8 6.0 N 9.8 0.0 0.0
23:59 16.5 15.4 93 1030.9 6.0 N 9.8 0.0 0.0

 

 

UK - WEATHER STATION TOPSITES - UK World Weather Websites

Copyright © Carnkie Weather 2009 - 2022.